Wetterdaten: Dienstag, 26.02.2013
Datum Zeit Temp. Aussen +5cm Feuchte Auss Luftdruck Regen Sonnenschein Regendauer UV Solar Windben
26.02.2013 00:00 1,5 C 0,1 C 100 % 1025,2 hPa 0,0 l/m 0 min 0 min 0,0 UV-I 0 W/m 2,6 km/h (1 Bft)
26.02.2013 00:02 1,5 C 0,1 C 100 % 1025,2 hPa 0,0 l/m 0 min 0 min 0,0 UV-I 0 W/m 0,0 km/h (0 Bft)
26.02.2013 00:04 1,5 C 0,1 C 100 % 1025,2 hPa 0,0 l/m 0 min 0 min 0,0 UV-I 0 W/m 0,0 km/h (0 Bft)
26.02.2013 00:06 1,5 C 0,1 C 100 % 1025,3 hPa 0,0 l/m 0 min 0 min 0,0 UV-I 0 W/m 0,0 km/h (0 Bft)
26.02.2013 00:08 1,5 C 0,1 C 100 % 1025,3 hPa 0,0 l/m 0 min 0 min 0,0 UV-I 0 W/m 0,0 km/h (0 Bft)
26.02.2013 00:10 1,5 C 0,1 C 99 % 1025,3 hPa 0,0 l/m 0 min 0 min 0,0 UV-I 0 W/m 2,6 km/h (1 Bft)
26.02.2013 00:12 1,5 C 0,1 C 99 % 1025,3 hPa 0,0 l/m 0 min 0 min 0,0 UV-I 0 W/m 0,0 km/h (0 Bft)
26.02.2013 00:14 1,5 C 0,1 C 99 % 1025,3 hPa 0,0 l/m 0 min 0 min 0,0 UV-I 0 W/m 5,1 km/h (1 Bft)
26.02.2013 00:16 1,4 C 0,1 C 99 % 1025,3 hPa 0,0 l/m 0 min 0 min 0,0 UV-I 0 W/m 2,6 km/h (1 Bft)
26.02.2013 00:18 1,5 C 0,1 C 99 % 1025,2 hPa 0,0 l/m 0 min 0 min 0,0 UV-I 0 W/m 2,6 km/h (1 Bft)
26.02.2013 00:20 1,4 C 0,1 C 99 % 1025,3 hPa 0,0 l/m 0 min 0 min 0,0 UV-I 0 W/m 0,0 km/h (0 Bft)
26.02.2013 00:22 1,5 C 0,1 C 99 % 1025,3 hPa 0,0 l/m 0 min 0 min 0,0 UV-I 0 W/m 0,0 km/h (0 Bft)
26.02.2013 00:24 1,5 C 0,1 C 99 % 1025,2 hPa 0,0 l/m 0 min 0 min 0,0 UV-I 0 W/m 2,6 km/h (1 Bft)
26.02.2013 00:26 1,5 C 0,1 C 99 % 1025,3 hPa 0,0 l/m 0 min 0 min 0,0 UV-I 0 W/m 2,6 km/h (1 Bft)
26.02.2013 00:28 1,5 C 0,1 C 99 % 1025,3 hPa 0,0 l/m 0 min 0 min 0,0 UV-I 0 W/m 5,1 km/h (1 Bft)
26.02.2013 00:30 1,5 C 0,1 C 99 % 1025,3 hPa 0,0 l/m 0 min 0 min 0,0 UV-I 0 W/m 2,6 km/h (1 Bft)
26.02.2013 00:32 1,5 C 0,1 C 100 % 1025,3 hPa 0,0 l/m 0 min 0 min 0,0 UV-I 0 W/m 5,1 km/h (1 Bft)
26.02.2013 00:34 1,5 C 0,1 C 99 % 1025,3 hPa 0,0 l/m 0 min 0 min 0,0 UV-I 0 W/m 0,0 km/h (0 Bft)
26.02.2013 00:36 1,5 C 0,1 C 99 % 1025,3 hPa 0,0 l/m 0 min 0 min 0,0 UV-I 0 W/m 0,0 km/h (0 Bft)
26.02.2013 00:38 1,5 C 0,1 C 100 % 1025,3 hPa 0,0 l/m 0 min 0 min 0,0 UV-I 0 W/m 0,0 km/h (0 Bft)
26.02.2013 00:40 1,5 C 0,1 C 99 % 1025,4 hPa 0,0 l/m 0 min 0 min 0,0 UV-I 0 W/m 0,0 km/h (0 Bft)
26.02.2013 00:42 1,5 C 0,1 C 99 % 1025,4 hPa 0,0 l/m 0 min 0 min 0,0 UV-I 0 W/m 0,0 km/h (0 Bft)
26.02.2013 00:44 1,4 C 0,1 C 99 % 1025,5 hPa 0,0 l/m 0 min 0 min 0,0 UV-I 0 W/m 0,0 km/h (0 Bft)
26.02.2013 00:46 1,4 C 0,1 C 99 % 1025,5 hPa 0,0 l/m 0 min 0 min 0,0 UV-I 0 W/m 2,6 km/h (1 Bft)
26.02.2013 00:48 1,5 C 0,1 C 99 % 1025,6 hPa 0,0 l/m 0 min 0 min 0,0 UV-I 0 W/m 0,0 km/h (0 Bft)
26.02.2013 00:50 1,4 C 0,1 C 99 % 1025,7 hPa 0,0 l/m 0 min 0 min 0,0 UV-I 0 W/m 0,0 km/h (0 Bft)
26.02.2013 00:52 1,4 C 0,1 C 99 % 1025,5 hPa 0,0 l/m 0 min 0 min 0,0 UV-I 0 W/m 0,0 km/h (0 Bft)
26.02.2013 00:54 1,4 C 0,1 C 99 % 1025,6 hPa 0,0 l/m 0 min 0 min 0,0 UV-I 0 W/m 0,0 km/h (0 Bft)
26.02.2013 00:56 1,4 C 0,1 C 99 % 1025,7 hPa 0,0 l/m 0 min 0 min 0,0 UV-I 0 W/m 2,6 km/h (1 Bft)
26.02.2013 00:58 1,4 C 0,1 C 99 % 1025,7 hPa 0,0 l/m 0 min 0 min 0,0 UV-I 0 W/m 2,6 km/h (1 Bft)
26.02.2013 01:00 1,4 C 0,1 C 99 % 1025,7 hPa 0,0 l/m 0 min 0 min 0,0 UV-I 0 W/m 5,1 km/h (1 Bft)
26.02.2013 01:02 1,4 C 0,1 C 99 % 1025,7 hPa 0,0 l/m 0 min 0 min 0,0 UV-I 0 W/m 0,0 km/h (0 Bft)
26.02.2013 01:04 1,4 C 0,1 C 99 % 1025,7 hPa 0,0 l/m 0 min 0 min 0,0 UV-I 0 W/m 0,0 km/h (0 Bft)
26.02.2013 01:06 1,4 C 0,1 C 99 % 1025,7 hPa 0,0 l/m 0 min 0 min 0,0 UV-I 0 W/m 0,0 km/h (0 Bft)
26.02.2013 01:08 1,4 C 0,1 C 99 % 1025,8 hPa 0,0 l/m 0 min 0 min 0,0 UV-I 0 W/m 0,0 km/h (0 Bft)
26.02.2013 01:10 1,4 C 0,1 C 99 % 1025,8 hPa 0,0 l/m 0 min 0 min 0,0 UV-I 0 W/m 2,6 km/h (1 Bft)
26.02.2013 01:12 1,4 C 0,1 C 99 % 1025,7 hPa 0,0 l/m 0 min 0 min 0,0 UV-I 0 W/m 0,0 km/h (0 Bft)
26.02.2013 01:14 1,4 C 0,1 C 99 % 1025,7 hPa 0,0 l/m 0 min 0 min 0,0 UV-I 0 W/m 0,0 km/h (0 Bft)
26.02.2013 01:16 1,4 C 0,1 C 99 % 1025,7 hPa 0,0 l/m 0 min 0 min 0,0 UV-I 0 W/m 0,0 km/h (0 Bft)
26.02.2013 01:18 1,4 C 0,1 C 99 % 1025,8 hPa 0,0 l/m 0 min 0 min 0,0 UV-I 0 W/m 0,0 km/h (0 Bft)
26.02.2013 01:20 1,4 C 0,1 C 99 % 1025,8 hPa 0,0 l/m 0 min 0 min 0,0 UV-I 0 W/m 0,0 km/h (0 Bft)
26.02.2013 01:22 1,4 C 0,1 C 99 % 1025,8 hPa 0,0 l/m 0 min 0 min 0,0 UV-I 0 W/m 0,0 km/h (0 Bft)
26.02.2013 01:24 1,4 C 0,1 C 99 % 1025,9 hPa 0,0 l/m 0 min 0 min 0,0 UV-I 0 W/m 5,1 km/h (1 Bft)
26.02.2013 01:26 1,4 C 0,1 C 99 % 1025,9 hPa 0,0 l/m 0 min 0 min 0,0 UV-I 0 W/m 0,0 km/h (0 Bft)
26.02.2013 01:28 1,4 C 0,1 C 99 % 1025,9 hPa 0,0 l/m 0 min 0 min 0,0 UV-I 0 W/m 0,0 km/h (0 Bft)
26.02.2013 01:30 1,4 C 0,1 C 99 % 1025,9 hPa 0,0 l/m 0 min 0 min 0,0 UV-I 0 W/m 0,0 km/h (0 Bft)
26.02.2013 01:32 1,4 C 0,1 C 99 % 1025,8 hPa 0,0 l/m 0 min 0 min 0,0 UV-I 0 W/m 0,0 km/h (0 Bft)
26.02.2013 01:34 1,4 C 0,1 C 99 % 1025,9 hPa 0,0 l/m 0 min 0 min 0,0 UV-I 0 W/m 0,0 km/h (0 Bft)
26.02.2013 01:36 1,4 C 0,1 C 99 % 1026,0 hPa 0,0 l/m 0 min 0 min 0,0 UV-I 0 W/m 5,1 km/h (1 Bft)
26.02.2013 01:38 1,4 C 0,1 C 99 % 1026,0 hPa 0,0 l/m 0 min 0 min 0,0 UV-I 0 W/m 5,1 km/h (1 Bft)
26.02.2013 01:40 1,4 C 0,1 C 99 % 1026,0 hPa 0,0 l/m 0 min 0 min 0,0 UV-I 0 W/m 0,0 km/h (0 Bft)
26.02.2013 01:42 1,4 C 0,1 C 99 % 1025,9 hPa 0,0 l/m 0 min 0 min 0,0 UV-I 0 W/m 0,0 km/h (0 Bft)
26.02.2013 01:44 1,4 C 0,1 C 99 % 1026,0 hPa 0,0 l/m 0 min 0 min 0,0 UV-I 0 W/m 0,0 km/h (0 Bft)
26.02.2013 01:46 1,4 C 0,1 C 99 % 1026,1 hPa 0,0 l/m 0 min 0 min 0,0 UV-I 0 W/m 0,0 km/h (0 Bft)
26.02.2013 01:48 1,4 C 0,1 C 99 % 1026,1 hPa 0,0 l/m 0 min 0 min 0,0 UV-I 0 W/m 0,0 km/h (0 Bft)
26.02.2013 01:50 1,4 C 0,1 C 99 % 1026,1 hPa 0,0 l/m 0 min 0 min 0,0 UV-I 0 W/m 0,0 km/h (0 Bft)
26.02.2013 01:52 1,4 C 0,1 C 99 % 1026,1 hPa 0,0 l/m 0 min 0 min 0,0 UV-I 0 W/m 0,0 km/h (0 Bft)
26.02.2013 01:54 1,4 C 0,1 C 99 % 1026,1 hPa 0,0 l/m 0 min 0 min 0,0 UV-I 0 W/m 0,0 km/h (0 Bft)
26.02.2013 01:56 1,4 C 0,1 C 99 % 1026,2 hPa 0,0 l/m 0 min 0 min 0,0 UV-I 0 W/m 0,0 km/h (0 Bft)
26.02.2013 01:58 1,4 C 0,1 C 99 % 1026,2 hPa 0,0 l/m 0 min 0 min 0,0 UV-I 0 W/m 0,0 km/h (0 Bft)
26.02.2013 02:00 1,4 C 0,1 C 99 % 1026,3 hPa 0,0 l/m 0 min 0 min 0,0 UV-I 0 W/m 0,0 km/h (0 Bft)
26.02.2013 02:02 1,4 C 0,1 C 99 % 1026,3 hPa 0,0 l/m 0 min 0 min 0,0 UV-I 0 W/m 0,0 km/h (0 Bft)
26.02.2013 02:04 1,4 C 0,1 C 99 % 1026,3 hPa 0,0 l/m 0 min 0 min 0,0 UV-I 0 W/m 2,6 km/h (1 Bft)
26.02.2013 02:06 1,4 C 0,1 C 99 % 1026,3 hPa 0,0 l/m 0 min 0 min 0,0 UV-I 0 W/m 0,0 km/h (0 Bft)
26.02.2013 02:08 1,3 C 0,1 C 99 % 1026,3 hPa 0,0 l/m 0 min 0 min 0,0 UV-I 0 W/m 0,0 km/h (0 Bft)
26.02.2013 02:10 1,3 C 0,1 C 99 % 1026,4 hPa 0,0 l/m 0 min 0 min 0,0 UV-I 0 W/m 0,0 km/h (0 Bft)
26.02.2013 02:12 1,3 C 0,1 C 99 % 1026,4 hPa 0,0 l/m 0 min 0 min 0,0 UV-I 0 W/m 0,0 km/h (0 Bft)
26.02.2013 02:14 1,4 C 0,1 C 99 % 1026,4 hPa 0,0 l/m 0 min 0 min 0,0 UV-I 0 W/m 0,0 km/h (0 Bft)
26.02.2013 02:16 1,4 C 0,1 C 99 % 1026,4 hPa 0,0 l/m 0 min 0 min 0,0 UV-I 0 W/m 0,0 km/h (0 Bft)
26.02.2013 02:18 1,4 C 0,1 C 99 % 1026,3 hPa 0,0 l/m 0 min 0 min 0,0 UV-I 0 W/m 0,0 km/h (0 Bft)
26.02.2013 02:20 1,3 C 0,1 C 99 % 1026,3 hPa 0,0 l/m 0 min 0 min 0,0 UV-I 0 W/m 2,6 km/h (1 Bft)
26.02.2013 02:22 1,3 C 0,1 C 99 % 1026,3 hPa 0,0 l/m 0 min 0 min 0,0 UV-I 0 W/m 0,0 km/h (0 Bft)
26.02.2013 02:24 1,3 C 0,1 C 99 % 1026,4 hPa 0,0 l/m 0 min 0 min 0,0 UV-I 0 W/m 2,6 km/h (1 Bft)
26.02.2013 02:26 1,3 C 0,1 C 99 % 1026,3 hPa 0,0 l/m 0 min 0 min 0,0 UV-I 0 W/m 0,0 km/h (0 Bft)
26.02.2013 02:28 1,3 C 0,1 C 99 % 1026,4 hPa 0,0 l/m 0 min 0 min 0,0 UV-I 0 W/m 0,0 km/h (0 Bft)
26.02.2013 02:30 1,3 C 0,1 C 99 % 1026,3 hPa 0,0 l/m 0 min 0 min 0,0 UV-I 0 W/m 2,6 km/h (1 Bft)
26.02.2013 02:32 1,3 C 0,1 C 99 % 1026,3 hPa 0,0 l/m 0 min 0 min 0,0 UV-I 0 W/m 0,0 km/h (0 Bft)
26.02.2013 02:34 1,3 C 0,1 C 99 % 1026,4 hPa 0,0 l/m 0 min 0 min 0,0 UV-I 0 W/m 5,1 km/h (1 Bft)
26.02.2013 02:36 1,3 C 0,1 C 99 % 1026,4 hPa 0,0 l/m 0 min 0 min 0,0 UV-I 0 W/m 5,1 km/h (1 Bft)
26.02.2013 02:38 1,3 C 0,1 C 99 % 1026,4 hPa 0,0 l/m 0 min 0 min 0,0 UV-I 0 W/m 0,0 km/h (0 Bft)
26.02.2013 02:40 1,3 C 0,1 C 99 % 1026,5 hPa 0,0 l/m 0 min 0 min 0,0 UV-I 0 W/m 0,0 km/h (0 Bft)
26.02.2013 02:42 1,3 C 0,1 C 99 % 1026,5 hPa 0,0 l/m 0 min 0 min 0,0 UV-I 0 W/m 0,0 km/h (0 Bft)
26.02.2013 02:44 1,3 C 0,1 C 99 % 1026,5 hPa 0,0 l/m 0 min 0 min 0,0 UV-I 0 W/m 0,0 km/h (0 Bft)
26.02.2013 02:46 1,3 C 0,1 C 99 % 1026,6 hPa 0,0 l/m 0 min 0 min 0,0 UV-I 0 W/m 0,0 km/h (0 Bft)
26.02.2013 02:48 1,3 C 0,1 C 99 % 1026,6 hPa 0,0 l/m 0 min 0 min 0,0 UV-I 0 W/m 0,0 km/h (0 Bft)
26.02.2013 02:50 1,3 C 0,1 C 99 % 1026,7 hPa 0,0 l/m 0 min 0 min 0,0 UV-I 0 W/m 0,0 km/h (0 Bft)
26.02.2013 02:52 1,3 C 0,1 C 99 % 1026,8 hPa 0,0 l/m 0 min 0 min 0,0 UV-I 0 W/m 0,0 km/h (0 Bft)
26.02.2013 02:54 1,3 C 0,1 C 99 % 1026,7 hPa 0,0 l/m 0 min 0 min 0,0 UV-I 0 W/m 0,0 km/h (0 Bft)
26.02.2013 02:56 1,3 C 0,1 C 99 % 1026,8 hPa 0,0 l/m 0 min 0 min 0,0 UV-I 0 W/m 0,0 km/h (0 Bft)
26.02.2013 02:58 1,3 C 0,1 C 99 % 1026,8 hPa 0,0 l/m 0 min 0 min 0,0 UV-I 0 W/m 0,0 km/h (0 Bft)
26.02.2013 03:00 1,3 C 0,1 C 99 % 1026,9 hPa 0,0 l/m 0 min 0 min 0,0 UV-I 0 W/m 0,0 km/h (0 Bft)
26.02.2013 03:02 1,3 C 0,1 C 99 % 1026,9 hPa 0,0 l/m 0 min 0 min 0,0 UV-I 0 W/m 0,0 km/h (0 Bft)
26.02.2013 03:04 1,3 C 0,1 C 99 % 1026,9 hPa 0,0 l/m 0 min 0 min 0,0 UV-I 0 W/m 0,0 km/h (0 Bft)
26.02.2013 03:06 1,3 C 0,1 C 99 % 1026,9 hPa 0,0 l/m 0 min 0 min 0,0 UV-I 0 W/m 0,0 km/h (0 Bft)
26.02.2013 03:08 1,3 C 0,1 C 99 % 1026,9 hPa 0,0 l/m 0 min 0 min 0,0 UV-I 0 W/m 0,0 km/h (0 Bft)
26.02.2013 03:10 1,3 C 0,1 C 99 % 1026,9 hPa 0,0 l/m 0 min 0 min 0,0 UV-I 0 W/m 0,0 km/h (0 Bft)
26.02.2013 03:12 1,3 C 0,1 C 99 % 1026,9 hPa 0,0 l/m 0 min 0 min 0,0 UV-I 0 W/m 0,0 km/h (0 Bft)
26.02.2013 03:14 1,3 C 0,1 C 99 % 1026,9 hPa 0,0 l/m 0 min 0 min 0,0 UV-I 0 W/m 0,0 km/h (0 Bft)
26.02.2013 03:16 1,3 C 0,1 C 99 % 1026,9 hPa 0,0 l/m 0 min 0 min 0,0 UV-I 0 W/m 0,0 km/h (0 Bft)
26.02.2013 03:18 1,3 C 0,1 C 99 % 1026,9 hPa 0,0 l/m 0 min 0 min 0,0 UV-I 0 W/m 0,0 km/h (0 Bft)
26.02.2013 03:20 1,3 C 0,1 C 99 % 1027,0 hPa 0,0 l/m 0 min 0 min 0,0 UV-I 0 W/m 0,0 km/h (0 Bft)
26.02.2013 03:22 1,3 C 0,1 C 99 % 1027,0 hPa 0,0 l/m 0 min 0 min 0,0 UV-I 0 W/m 0,0 km/h (0 Bft)
26.02.2013 03:24 1,3 C 0,1 C 99 % 1027,0 hPa 0,0 l/m 0 min 0 min 0,0 UV-I 0 W/m 0,0 km/h (0 Bft)
26.02.2013 03:26 1,3 C 0,1 C 99 % 1027,0 hPa 0,0 l/m 0 min 0 min 0,0 UV-I 0 W/m 0,0 km/h (0 Bft)
26.02.2013 03:28 1,3 C 0,1 C 99 % 1027,0 hPa 0,0 l/m 0 min 0 min 0,0 UV-I 0 W/m 0,0 km/h (0 Bft)
26.02.2013 03:30 1,3 C 0,1 C 99 % 1027,1 hPa 0,0 l/m 0 min 0 min 0,0 UV-I 0 W/m 0,0 km/h (0 Bft)
26.02.2013 03:32 1,3 C 0,1 C 99 % 1027,1 hPa 0,0 l/m 0 min 0 min 0,0 UV-I 0 W/m 0,0 km/h (0 Bft)
26.02.2013 03:34 1,3 C 0,1 C 99 % 1027,1 hPa 0,0 l/m 0 min 0 min 0,0 UV-I 0 W/m 0,0 km/h (0 Bft)
26.02.2013 03:36 1,3 C 0,1 C 99 % 1027,0 hPa 0,0 l/m 0 min 0 min 0,0 UV-I 0 W/m 0,0 km/h (0 Bft)
26.02.2013 03:38 1,3 C 0,1 C 99 % 1027,1 hPa 0,0 l/m 0 min 0 min 0,0 UV-I 0 W/m 0,0 km/h (0 Bft)
26.02.2013 03:40 1,3 C -0,4 C 99 % 1027,1 hPa 0,0 l/m 0 min 0 min 0,0 UV-I 0 W/m 0,0 km/h (0 Bft)
26.02.2013 03:42 1,3 C 0,1 C 99 % 1027,1 hPa 0,0 l/m 0 min 0 min 0,0 UV-I 0 W/m 0,0 km/h (0 Bft)
26.02.2013 03:44 1,3 C 0,1 C 99 % 1027,1 hPa 0,0 l/m 0 min 0 min 0,0 UV-I 0 W/m 0,0 km/h (0 Bft)
26.02.2013 03:46 1,3 C 0,1 C 99 % 1027,0 hPa 0,0 l/m 0 min 0 min 0,0 UV-I 0 W/m 0,0 km/h (0 Bft)
26.02.2013 03:48 1,3 C 0,1 C 99 % 1027,1 hPa 0,0 l/m 0 min 0 min 0,0 UV-I 0 W/m 2,6 km/h (1 Bft)
26.02.2013 03:50 1,3 C 0,1 C 99 % 1027,1 hPa 0,0 l/m 0 min 0 min 0,0 UV-I 0 W/m 2,6 km/h (1 Bft)
26.02.2013 03:52 1,3 C 0,1 C 99 % 1027,1 hPa 0,0 l/m 0 min 0 min 0,0 UV-I 0 W/m 0,0 km/h (0 Bft)
26.02.2013 03:54 1,3 C 0,1 C 99 % 1027,1 hPa 0,0 l/m 0 min 0 min 0,0 UV-I 0 W/m 0,0 km/h (0 Bft)
26.02.2013 03:56 1,3 C 0,1 C 99 % 1027,1 hPa 0,0 l/m 0 min 0 min 0,0 UV-I 0 W/m 0,0 km/h (0 Bft)
26.02.2013 03:58 1,3 C 0,1 C 99 % 1027,1 hPa 0,0 l/m 0 min 0 min 0,0 UV-I 0 W/m 0,0 km/h (0 Bft)
26.02.2013 04:00 1,3 C 0,1 C 99 % 1027,1 hPa 0,0 l/m 0 min 0 min 0,0 UV-I 0 W/m 0,0 km/h (0 Bft)
26.02.2013 04:02 1,3 C 0,1 C 99 % 1027,2 hPa 0,0 l/m 0 min 0 min 0,0 UV-I 0 W/m 0,0 km/h (0 Bft)
26.02.2013 04:04 1,3 C 0,1 C 99 % 1027,2 hPa 0,0 l/m 0 min 0 min 0,0 UV-I 0 W/m 0,0 km/h (0 Bft)
26.02.2013 04:06 1,3 C 0,1 C 99 % 1027,3 hPa 0,0 l/m 0 min 0 min 0,0 UV-I 0 W/m 0,0 km/h (0 Bft)
26.02.2013 04:08 1,3 C 0,1 C 99 % 1027,4 hPa 0,0 l/m 0 min 0 min 0,0 UV-I 0 W/m 0,0 km/h (0 Bft)
26.02.2013 04:10 1,3 C 0,1 C 99 % 1027,4 hPa 0,0 l/m 0 min 0 min 0,0 UV-I 0 W/m 0,0 km/h (0 Bft)
26.02.2013 04:12 1,3 C 0,1 C 99 % 1027,5 hPa 0,0 l/m 0 min 0 min 0,0 UV-I 0 W/m 2,6 km/h (1 Bft)
26.02.2013 04:14 1,3 C 0,1 C 99 % 1027,5 hPa 0,0 l/m 0 min 0 min 0,0 UV-I 0 W/m 0,0 km/h (0 Bft)
26.02.2013 04:16 1,3 C 0,1 C 99 % 1027,5 hPa 0,0 l/m 0 min 0 min 0,0 UV-I 0 W/m 0,0 km/h (0 Bft)
26.02.2013 04:18 1,3 C 0,1 C 99 % 1027,5 hPa 0,0 l/m 0 min 0 min 0,0 UV-I 0 W/m 0,0 km/h (0 Bft)
26.02.2013 04:20 1,3 C 0,1 C 99 % 1027,5 hPa 0,0 l/m 0 min 0 min 0,0 UV-I 0 W/m 7,7 km/h (2 Bft)
26.02.2013 04:22 1,3 C 0,1 C 99 % 1027,6 hPa 0,0 l/m 0 min 0 min 0,0 UV-I 0 W/m 7,7 km/h (2 Bft)
26.02.2013 04:24 1,3 C 0,1 C 99 % 1027,6 hPa 0,0 l/m 0 min 0 min 0,0 UV-I 0 W/m 0,0 km/h (0 Bft)
26.02.2013 04:26 1,3 C 0,1 C 99 % 1027,5 hPa 0,0 l/m 0 min 0 min 0,0 UV-I 0 W/m 2,6 km/h (1 Bft)
26.02.2013 04:28 1,3 C 0,1 C 99 % 1027,5 hPa 0,0 l/m 0 min 0 min 0,0 UV-I 0 W/m 0,0 km/h (0 Bft)
26.02.2013 04:30 1,3 C 0,1 C 99 % 1027,6 hPa 0,0 l/m 0 min 0 min 0,0 UV-I 0 W/m 0,0 km/h (0 Bft)
26.02.2013 04:32 1,3 C 0,1 C 99 % 1027,6 hPa 0,0 l/m 0 min 0 min 0,0 UV-I 0 W/m 0,0 km/h (0 Bft)
26.02.2013 04:34 1,3 C 0,1 C 99 % 1027,6 hPa 0,0 l/m 0 min 0 min 0,0 UV-I 0 W/m 0,0 km/h (0 Bft)
26.02.2013 04:36 1,3 C 0,1 C 99 % 1027,6 hPa 0,0 l/m 0 min 0 min 0,0 UV-I 0 W/m 7,7 km/h (2 Bft)
26.02.2013 04:38 1,3 C 0,1 C 99 % 1027,5 hPa 0,0 l/m 0 min 0 min 0,0 UV-I 0 W/m 2,6 km/h (1 Bft)
26.02.2013 04:40 1,3 C 0,1 C 99 % 1027,6 hPa 0,0 l/m 0 min 0 min 0,0 UV-I 0 W/m 0,0 km/h (0 Bft)
26.02.2013 04:42 1,3 C 0,1 C 99 % 1027,6 hPa 0,0 l/m 0 min 0 min 0,0 UV-I 0 W/m 0,0 km/h (0 Bft)
26.02.2013 04:44 1,3 C 0,1 C 99 % 1027,6 hPa 0,0 l/m 0 min 0 min 0,0 UV-I 0 W/m 0,0 km/h (0 Bft)
26.02.2013 04:46 1,3 C 0,1 C 99 % 1027,6 hPa 0,0 l/m 0 min 0 min 0,0 UV-I 0 W/m 5,1 km/h (1 Bft)
26.02.2013 04:48 1,3 C 0,1 C 99 % 1027,6 hPa 0,0 l/m 0 min 0 min 0,0 UV-I 0 W/m 5,1 km/h (1 Bft)
26.02.2013 04:50 1,3 C 0,1 C 99 % 1027,5 hPa 0,0 l/m 0 min 0 min 0,0 UV-I 0 W/m 2,6 km/h (1 Bft)
26.02.2013 04:52 1,3 C 0,1 C 99 % 1027,5 hPa 0,0 l/m 0 min 0 min 0,0 UV-I 0 W/m 0,0 km/h (0 Bft)
26.02.2013 04:54 1,3 C 0,1 C 99 % 1027,5 hPa 0,0 l/m 0 min 0 min 0,0 UV-I 0 W/m 0,0 km/h (0 Bft)
26.02.2013 04:56 1,3 C 0,1 C 99 % 1027,5 hPa 0,0 l/m 0 min 0 min 0,0 UV-I 0 W/m 0,0 km/h (0 Bft)
26.02.2013 04:58 1,3 C 0,1 C 99 % 1027,5 hPa 0,0 l/m 0 min 0 min 0,0 UV-I 0 W/m 2,6 km/h (1 Bft)
26.02.2013 05:00 1,3 C 0,1 C 99 % 1027,5 hPa 0,0 l/m 0 min 0 min 0,0 UV-I 0 W/m 5,1 km/h (1 Bft)
26.02.2013 05:02 1,3 C 0,1 C 99 % 1027,4 hPa 0,0 l/m 0 min 0 min 0,0 UV-I 0 W/m 0,0 km/h (0 Bft)
26.02.2013 05:04 1,3 C 0,1 C 99 % 1027,5 hPa 0,0 l/m 0 min 0 min 0,0 UV-I 0 W/m 5,1 km/h (1 Bft)
26.02.2013 05:06 1,3 C 0,1 C 99 % 1027,6 hPa 0,0 l/m 0 min 0 min 0,0 UV-I 0 W/m 0,0 km/h (0 Bft)
26.02.2013 05:08 1,3 C 0,1 C 99 % 1027,6 hPa 0,0 l/m 0 min 0 min 0,0 UV-I 0 W/m 0,0 km/h (0 Bft)
26.02.2013 05:10 1,3 C -0,4 C 99 % 1027,6 hPa 0,0 l/m 0 min 0 min 0,0 UV-I 0 W/m 0,0 km/h (0 Bft)
26.02.2013 05:12 1,3 C -0,4 C 99 % 1027,6 hPa 0,0 l/m 0 min 0 min 0,0 UV-I 0 W/m 0,0 km/h (0 Bft)
26.02.2013 05:14 1,3 C -0,4 C 99 % 1027,6 hPa 0,0 l/m 0 min 0 min 0,0 UV-I 0 W/m 0,0 km/h (0 Bft)
26.02.2013 05:16 1,3 C -0,4 C 99 % 1027,7 hPa 0,0 l/m 0 min 0 min 0,0 UV-I 0 W/m 5,1 km/h (1 Bft)
26.02.2013 05:18 1,3 C -0,4 C 99 % 1027,7 hPa 0,0 l/m 0 min 0 min 0,0 UV-I 0 W/m 5,1 km/h (1 Bft)
26.02.2013 05:20 1,3 C -0,4 C 99 % 1027,7 hPa 0,0 l/m 0 min 0 min 0,0 UV-I 0 W/m 0,0 km/h (0 Bft)
26.02.2013 05:22 1,3 C -0,4 C 99 % 1027,8 hPa 0,0 l/m 0 min 0 min 0,0 UV-I 0 W/m 0,0 km/h (0 Bft)
26.02.2013 05:24 1,3 C 0,1 C 99 % 1027,8 hPa 0,0 l/m 0 min 0 min 0,0 UV-I 0 W/m 0,0 km/h (0 Bft)
26.02.2013 05:26 1,3 C 0,1 C 99 % 1027,8 hPa 0,0 l/m 0 min 0 min 0,0 UV-I 0 W/m 0,0 km/h (0 Bft)
26.02.2013 05:28 1,3 C 0,1 C 99 % 1027,7 hPa 0,0 l/m 0 min 0 min 0,0 UV-I 0 W/m 0,0 km/h (0 Bft)
26.02.2013 05:30 1,3 C 0,1 C 99 % 1027,8 hPa 0,0 l/m 0 min 0 min 0,0 UV-I 0 W/m 5,1 km/h (1 Bft)
26.02.2013 05:32 1,3 C 0,1 C 99 % 1027,8 hPa 0,0 l/m 0 min 0 min 0,0 UV-I 0 W/m 0,0 km/h (0 Bft)
26.02.2013 05:34 1,3 C 0,1 C 99 % 1027,9 hPa 0,0 l/m 0 min 0 min 0,0 UV-I 0 W/m 0,0 km/h (0 Bft)
26.02.2013 05:36 1,3 C 0,1 C 99 % 1027,9 hPa 0,0 l/m 0 min 0 min 0,0 UV-I 0 W/m 2,6 km/h (1 Bft)
26.02.2013 05:38 1,3 C 0,1 C 99 % 1027,9 hPa 0,0 l/m 0 min 0 min 0,0 UV-I 0 W/m 2,6 km/h (1 Bft)
26.02.2013 05:40 1,3 C 0,1 C 99 % 1028,0 hPa 0,0 l/m 0 min 0 min 0,0 UV-I 0 W/m 0,0 km/h (0 Bft)
26.02.2013 05:42 1,3 C 0,1 C 99 % 1028,0 hPa 0,0 l/m 0 min 0 min 0,0 UV-I 0 W/m 2,6 km/h (1 Bft)
26.02.2013 05:44 1,3 C 0,1 C 99 % 1028,0 hPa 0,0 l/m 0 min 0 min 0,0 UV-I 0 W/m 0,0 km/h (0 Bft)
26.02.2013 05:46 1,3 C 0,1 C 99 % 1028,0 hPa 0,0 l/m 0 min 0 min 0,0 UV-I 0 W/m 0,0 km/h (0 Bft)
26.02.2013 05:48 1,3 C 0,1 C 99 % 1028,0 hPa 0,0 l/m 0 min 0 min 0,0 UV-I 0 W/m 0,0 km/h (0 Bft)
26.02.2013 05:50 1,3 C -0,4 C 99 % 1028,0 hPa 0,0 l/m 0 min 0 min 0,0 UV-I 0 W/m 0,0 km/h (0 Bft)
26.02.2013 05:52 1,3 C -0,4 C 99 % 1027,9 hPa 0,0 l/m 0 min 0 min 0,0 UV-I 0 W/m 0,0 km/h (0 Bft)
26.02.2013 05:54 1,3 C -0,4 C 99 % 1027,9 hPa 0,0 l/m 0 min 0 min 0,0 UV-I 0 W/m 0,0 km/h (0 Bft)
26.02.2013 05:56 1,2 C -0,4 C 99 % 1027,9 hPa 0,0 l/m 0 min 0 min 0,0 UV-I 0 W/m 0,0 km/h (0 Bft)
26.02.2013 05:58 1,2 C -0,4 C 99 % 1027,9 hPa 0,0 l/m 0 min 0 min 0,0 UV-I 0 W/m 0,0 km/h (0 Bft)
26.02.2013 06:00 1,2 C -0,4 C 99 % 1027,9 hPa 0,0 l/m 0 min 0 min 0,0 UV-I 0 W/m 0,0 km/h (0 Bft)
26.02.2013 06:02 1,2 C -1,0 C 99 % 1028,0 hPa 0,0 l/m 0 min 0 min 0,0 UV-I 0 W/m 0,0 km/h (0 Bft)
26.02.2013 06:04 1,2 C -1,0 C 99 % 1028,0 hPa 0,0 l/m 0 min 0 min 0,0 UV-I 0 W/m 0,0 km/h (0 Bft)
26.02.2013 06:06 1,1 C -1,0 C 99 % 1028,0 hPa 0,0 l/m 0 min 0 min 0,0 UV-I 0 W/m 0,0 km/h (0 Bft)
26.02.2013 06:08 1,1 C -1,0 C 99 % 1028,0 hPa 0,0 l/m 0 min 0 min 0,0 UV-I 0 W/m 0,0 km/h (0 Bft)
26.02.2013 06:10 1,1 C -1,0 C 99 % 1028,0 hPa 0,0 l/m 0 min 0 min 0,0 UV-I 0 W/m 0,0 km/h (0 Bft)
26.02.2013 06:12 1,0 C -1,6 C 99 % 1028,1 hPa 0,0 l/m 0 min 0 min 0,0 UV-I 0 W/m 0,0 km/h (0 Bft)
26.02.2013 06:14 1,0 C -1,6 C 99 % 1028,1 hPa 0,0 l/m 0 min 0 min 0,0 UV-I 0 W/m 0,0 km/h (0 Bft)
26.02.2013 06:16 0,9 C -1,6 C 99 % 1028,1 hPa 0,0 l/m 0 min 0 min 0,0 UV-I 0 W/m 0,0 km/h (0 Bft)
26.02.2013 06:18 0,9 C -1,6 C 99 % 1028,2 hPa 0,0 l/m 0 min 0 min 0,0 UV-I 0 W/m 0,0 km/h (0 Bft)
26.02.2013 06:20 0,8 C -1,6 C 99 % 1028,2 hPa 0,0 l/m 0 min 0 min 0,0 UV-I 0 W/m 0,0 km/h (0 Bft)
26.02.2013 06:22 0,8 C -1,6 C 99 % 1028,2 hPa 0,0 l/m 0 min 0 min 0,0 UV-I 0 W/m 0,0 km/h (0 Bft)
26.02.2013 06:24 0,8 C -1,6 C 99 % 1028,2 hPa 0,0 l/m 0 min 0 min 0,0 UV-I 0 W/m 0,0 km/h (0 Bft)
26.02.2013 06:26 0,7 C -1,6 C 99 % 1028,2 hPa 0,0 l/m 0 min 0 min 0,0 UV-I 0 W/m 0,0 km/h (0 Bft)
26.02.2013 06:28 0,7 C -1,6 C 99 % 1028,2 hPa 0,0 l/m 0 min 0 min 0,0 UV-I 0 W/m 0,0 km/h (0 Bft)
26.02.2013 06:30 0,6 C -1,6 C 99 % 1028,2 hPa 0,0 l/m 0 min 0 min 0,0 UV-I 0 W/m 0,0 km/h (0 Bft)
26.02.2013 06:32 0,6 C -1,6 C 99 % 1028,2 hPa 0,0 l/m 0 min 0 min 0,0 UV-I 0 W/m 0,0 km/h (0 Bft)
26.02.2013 06:34 0,6 C -1,6 C 99 % 1028,2 hPa 0,0 l/m 0 min 0 min 0,0 UV-I 0 W/m 0,0 km/h (0 Bft)
26.02.2013 06:36 0,5 C -2,1 C 99 % 1028,3 hPa 0,0 l/m 0 min 0 min 0,0 UV-I 0 W/m 0,0 km/h (0 Bft)
26.02.2013 06:38 0,4 C -2,1 C 99 % 1028,4 hPa 0,0 l/m 0 min 0 min 0,0 UV-I 0 W/m 0,0 km/h (0 Bft)
26.02.2013 06:40 0,4 C -2,1 C 99 % 1028,3 hPa 0,0 l/m 0 min 0 min 0,0 UV-I 0 W/m 0,0 km/h (0 Bft)
26.02.2013 06:42 0,4 C -1,6 C 99 % 1028,3 hPa 0,0 l/m 0 min 0 min 0,0 UV-I 0 W/m 5,1 km/h (1 Bft)
26.02.2013 06:44 0,3 C -1,6 C 99 % 1028,3 hPa 0,0 l/m 0 min 0 min 0,0 UV-I 0 W/m 2,6 km/h (1 Bft)
26.02.2013 06:46 0,3 C -1,6 C 99 % 1028,3 hPa 0,0 l/m 0 min 0 min 0,0 UV-I 0 W/m 0,0 km/h (0 Bft)
26.02.2013 06:48 0,3 C -1,6 C 99 % 1028,3 hPa 0,0 l/m 0 min 0 min 0,0 UV-I 0 W/m 0,0 km/h (0 Bft)
26.02.2013 06:50 0,3 C -1,6 C 99 % 1028,3 hPa 0,0 l/m 0 min 0 min 0,0 UV-I 0 W/m 0,0 km/h (0 Bft)
26.02.2013 06:52 0,3 C -1,6 C 99 % 1028,4 hPa 0,0 l/m 0 min 0 min 0,0 UV-I 0 W/m 0,0 km/h (0 Bft)
26.02.2013 06:54 0,3 C -1,6 C 99 % 1028,5 hPa 0,0 l/m 0 min 0 min 0,0 UV-I 0 W/m 0,0 km/h (0 Bft)
26.02.2013 06:56 0,2 C -1,6 C 99 % 1028,5 hPa 0,0 l/m 0 min 0 min 0,0 UV-I 0 W/m 0,0 km/h (0 Bft)
26.02.2013 06:58 0,2 C -1,6 C 99 % 1028,5 hPa 0,0 l/m 0 min 0 min 0,0 UV-I 0 W/m 0,0 km/h (0 Bft)
26.02.2013 07:00 0,2 C -2,1 C 99 % 1028,6 hPa 0,0 l/m 0 min 0 min 0,0 UV-I 0 W/m 0,0 km/h (0 Bft)
26.02.2013 07:02 0,2 C -1,6 C 99 % 1028,6 hPa 0,0 l/m 0 min 0 min 0,0 UV-I 0 W/m 0,0 km/h (0 Bft)
26.02.2013 07:04 0,2 C -1,6 C 99 % 1028,6 hPa 0,0 l/m 0 min 0 min 0,0 UV-I 0 W/m 0,0 km/h (0 Bft)
26.02.2013 07:06 0,2 C -1,6 C 99 % 1028,6 hPa 0,0 l/m 0 min 0 min 0,0 UV-I 0 W/m 0,0 km/h (0 Bft)
26.02.2013 07:08 0,2 C -2,1 C 99 % 1028,7 hPa 0,0 l/m 0 min 0 min 0,0 UV-I 0 W/m 0,0 km/h (0 Bft)
26.02.2013 07:10 0,1 C -2,1 C 99 % 1028,7 hPa 0,0 l/m 0 min 0 min 0,0 UV-I 0 W/m 0,0 km/h (0 Bft)
26.02.2013 07:12 0,1 C -2,1 C 99 % 1028,8 hPa 0,0 l/m 0 min 0 min 0,0 UV-I 0 W/m 0,0 km/h (0 Bft)
26.02.2013 07:14 0,1 C -2,1 C 99 % 1028,8 hPa 0,0 l/m 0 min 0 min 0,0 UV-I 0 W/m 0,0 km/h (0 Bft)
26.02.2013 07:16 0,1 C -2,1 C 99 % 1028,8 hPa 0,0 l/m 0 min 0 min 0,0 UV-I 0 W/m 0,0 km/h (0 Bft)
26.02.2013 07:18 0,1 C -2,1 C 99 % 1028,8 hPa 0,0 l/m 0 min 0 min 0,0 UV-I 0 W/m 0,0 km/h (0 Bft)
26.02.2013 07:20 0,1 C -1,0 C 99 % 1028,8 hPa 0,0 l/m 0 min 0 min 0,0 UV-I 0 W/m 0,0 km/h (0 Bft)
26.02.2013 07:22 0,0 C -1,6 C 99 % 1028,8 hPa 0,0 l/m 0 min 0 min 0,0 UV-I 0 W/m 0,0 km/h (0 Bft)
26.02.2013 07:24 0,0 C -1,6 C 99 % 1028,8 hPa 0,0 l/m 0 min 0 min 0,0 UV-I 0 W/m 0,0 km/h (0 Bft)
26.02.2013 07:26 0,0 C -1,6 C 99 % 1028,8 hPa 0,0 l/m 0 min 0 min 0,0 UV-I 0 W/m 0,0 km/h (0 Bft)
26.02.2013 07:28 -0,1 C -1,6 C 99 % 1028,9 hPa 0,0 l/m 0 min 0 min 0,0 UV-I 0 W/m 0,0 km/h (0 Bft)
26.02.2013 07:30 -0,1 C -1,6 C 99 % 1028,9 hPa 0,0 l/m 0 min 0 min 0,0 UV-I 0 W/m 2,6 km/h (1 Bft)
26.02.2013 07:32 -0,1 C -1,6 C 99 % 1028,9 hPa 0,0 l/m 0 min 0 min 0,0 UV-I 5 W/m 2,6 km/h (1 Bft)
26.02.2013 07:34 -0,1 C -1,6 C 99 % 1029,0 hPa 0,0 l/m 0 min 0 min 0,0 UV-I 5 W/m 0,0 km/h (0 Bft)
26.02.2013 07:36 0,0 C -1,6 C 99 % 1029,0 hPa 0,0 l/m 0 min 0 min 0,0 UV-I 7 W/m 0,0 km/h (0 Bft)
26.02.2013 07:38 0,0 C -1,6 C 99 % 1029,1 hPa 0,0 l/m 0 min 0 min 0,0 UV-I 7 W/m 0,0 km/h (0 Bft)
26.02.2013 07:40 0,0 C -1,6 C 99 % 1029,1 hPa 0,0 l/m 0 min 0 min 0,0 UV-I 7 W/m 0,0 km/h (0 Bft)
26.02.2013 07:42 0,0 C -1,6 C 99 % 1029,1 hPa 0,0 l/m 0 min 0 min 0,0 UV-I 9 W/m 0,0 km/h (0 Bft)
26.02.2013 07:44 0,0 C -1,6 C 99 % 1029,1 hPa 0,0 l/m 0 min 0 min 0,0 UV-I 9 W/m 0,0 km/h (0 Bft)
26.02.2013 07:46 0,0 C -1,6 C 99 % 1029,1 hPa 0,0 l/m 0 min 0 min 0,0 UV-I 11 W/m 0,0 km/h (0 Bft)
26.02.2013 07:48 0,0 C -1,6 C 99 % 1029,1 hPa 0,0 l/m 0 min 0 min 0,0 UV-I 11 W/m 0,0 km/h (0 Bft)
26.02.2013 07:50 -0,1 C -1,6 C 99 % 1029,2 hPa 0,0 l/m 0 min 0 min 0,0 UV-I 11 W/m 0,0 km/h (0 Bft)
26.02.2013 07:52 -0,1 C -1,6 C 99 % 1029,1 hPa 0,0 l/m 0 min 0 min 0,0 UV-I 12 W/m 0,0 km/h (0 Bft)
26.02.2013 07:54 -0,1 C -1,6 C 99 % 1029,2 hPa 0,0 l/m 0 min 0 min 0,0 UV-I 12 W/m 0,0 km/h (0 Bft)
26.02.2013 07:56 -0,1 C -2,1 C 99 % 1029,3 hPa 0,0 l/m 0 min 0 min 0,0 UV-I 12 W/m 0,0 km/h (0 Bft)
26.02.2013 07:58 -0,1 C -2,1 C 99 % 1029,3 hPa 0,0 l/m 0 min 0 min 0,0 UV-I 14 W/m 0,0 km/h (0 Bft)
26.02.2013 08:00 -0,1 C -2,1 C 99 % 1029,4 hPa 0,0 l/m 0 min 0 min 0,0 UV-I 16 W/m 0,0 km/h (0 Bft)
26.02.2013 08:02 -0,1 C -2,1 C 99 % 1029,4 hPa 0,0 l/m 0 min 0 min 0,0 UV-I 16 W/m 0,0 km/h (0 Bft)
26.02.2013 08:04 -0,1 C -2,1 C 99 % 1029,5 hPa 0,0 l/m 0 min 0 min 0,0 UV-I 18 W/m 0,0 km/h (0 Bft)
26.02.2013 08:06 -0,1 C -2,1 C 99 % 1029,5 hPa 0,0 l/m 0 min 0 min 0,0 UV-I 18 W/m 0,0 km/h (0 Bft)
26.02.2013 08:08 -0,2 C -1,6 C 99 % 1029,5 hPa 0,0 l/m 0 min 0 min 0,0 UV-I 18 W/m 0,0 km/h (0 Bft)
26.02.2013 08:10 -0,2 C -1,6 C 99 % 1029,5 hPa 0,0 l/m 0 min 0 min 0,0 UV-I 19 W/m 0,0 km/h (0 Bft)
26.02.2013 08:12 -0,2 C -1,6 C 99 % 1029,5 hPa 0,0 l/m 0 min 0 min 0,0 UV-I 19 W/m 0,0 km/h (0 Bft)
26.02.2013 08:14 -0,2 C -1,6 C 99 % 1029,5 hPa 0,0 l/m 0 min 0 min 0,0 UV-I 21 W/m 0,0 km/h (0 Bft)
26.02.2013 08:16 -0,2 C -1,6 C 99 % 1029,6 hPa 0,0 l/m 0 min 0 min 0,0 UV-I 25 W/m 0,0 km/h (0 Bft)
26.02.2013 08:18 -0,1 C -1,6 C 99 % 1029,7 hPa 0,0 l/m 0 min 0 min 0,0 UV-I 26 W/m 0,0 km/h (0 Bft)
26.02.2013 08:20 -0,1 C -1,6 C 99 % 1029,7 hPa 0,0 l/m 0 min 0 min 0,0 UV-I 28 W/m 0,0 km/h (0 Bft)
26.02.2013 08:22 -0,1 C -1,6 C 99 % 1029,7 hPa 0,0 l/m 0 min 0 min 0,0 UV-I 33 W/m 0,0 km/h (0 Bft)
26.02.2013 08:24 -0,1 C -1,6 C 99 % 1029,7 hPa 0,0 l/m 0 min 0 min 0,0 UV-I 33 W/m 0,0 km/h (0 Bft)
26.02.2013 08:26 -0,1 C -1,6 C 99 % 1029,8 hPa 0,0 l/m 0 min 0 min 0,0 UV-I 33 W/m 0,0 km/h (0 Bft)
26.02.2013 08:28 -0,1 C -1,0 C 99 % 1029,7 hPa 0,0 l/m 0 min 0 min 0,0 UV-I 35 W/m 0,0 km/h (0 Bft)
26.02.2013 08:30 -0,1 C -1,0 C 99 % 1029,8 hPa 0,0 l/m 0 min 0 min 0,0 UV-I 37 W/m 0,0 km/h (0 Bft)
26.02.2013 08:32 0,0 C -1,0 C 99 % 1029,8 hPa 0,0 l/m 0 min 0 min 0,0 UV-I 40 W/m 0,0 km/h (0 Bft)
26.02.2013 08:34 0,0 C -1,0 C 99 % 1029,9 hPa 0,0 l/m 0 min 0 min 0,0 UV-I 42 W/m 2,6 km/h (1 Bft)
26.02.2013 08:36 0,1 C -1,0 C 99 % 1029,9 hPa 0,0 l/m 0 min 0 min 0,0 UV-I 46 W/m 0,0 km/h (0 Bft)
26.02.2013 08:38 0,1 C -1,0 C 99 % 1029,9 hPa 0,0 l/m 0 min 0 min 0,0 UV-I 49 W/m 0,0 km/h (0 Bft)
26.02.2013 08:40 0,1 C -1,0 C 99 % 1029,8 hPa 0,0 l/m 0 min 0 min 0,0 UV-I 54 W/m 5,1 km/h (1 Bft)
26.02.2013 08:42 0,2 C -1,0 C 99 % 1029,8 hPa 0,0 l/m 0 min 0 min 0,0 UV-I 56 W/m 0,0 km/h (0 Bft)
26.02.2013 08:44 0,2 C -1,0 C 99 % 1029,8 hPa 0,0 l/m 0 min 0 min 0,0 UV-I 56 W/m 2,6 km/h (1 Bft)
26.02.2013 08:46 0,2 C -1,0 C 99 % 1029,8 hPa 0,0 l/m 0 min 0 min 0,0 UV-I 65 W/m 0,0 km/h (0 Bft)
26.02.2013 08:48 0,2 C -1,0 C 99 % 1029,9 hPa 0,0 l/m 0 min 0 min 0,0 UV-I 76 W/m 2,6 km/h (1 Bft)
26.02.2013 08:50 0,3 C -1,0 C 100 % 1029,9 hPa 0,0 l/m 0 min 0 min 0,0 UV-I 69 W/m 2,6 km/h (1 Bft)
26.02.2013 08:52 0,3 C -1,0 C 100 % 1030,0 hPa 0,0 l/m 0 min 0 min 0,0 UV-I 88 W/m 0,0 km/h (0 Bft)
26.02.2013 08:54 0,4 C -1,0 C 99 % 1030,0 hPa 0,0 l/m 0 min 0 min 0,0 UV-I 79 W/m 0,0 km/h (0 Bft)
26.02.2013 08:56 0,4 C -1,0 C 99 % 1030,0 hPa 0,0 l/m 0 min 0 min 0,0 UV-I 77 W/m 0,0 km/h (0 Bft)
26.02.2013 08:58 0,4 C -0,4 C 99 % 1030,0 hPa 0,0 l/m 0 min 0 min 0,0 UV-I 91 W/m 0,0 km/h (0 Bft)
26.02.2013 09:00 0,5 C -0,4 C 99 % 1029,9 hPa 0,0 l/m 0 min 0 min 0,0 UV-I 98 W/m 0,0 km/h (0 Bft)
26.02.2013 09:02 0,6 C -0,4 C 99 % 1029,9 hPa 0,0 l/m 0 min 0 min 0,0 UV-I 107 W/m 0,0 km/h (0 Bft)
26.02.2013 09:04 0,6 C -0,4 C 100 % 1029,8 hPa 0,0 l/m 0 min 0 min 0,0 UV-I 109 W/m 2,6 km/h (1 Bft)
26.02.2013 09:06 0,7 C -0,4 C 100 % 1029,9 hPa 0,0 l/m 0 min 0 min 0,0 UV-I 116 W/m 2,6 km/h (1 Bft)
26.02.2013 09:08 0,7 C -0,4 C 100 % 1029,9 hPa 0,0 l/m 0 min 0 min 0,0 UV-I 97 W/m 5,1 km/h (1 Bft)
26.02.2013 09:10 0,7 C -0,4 C 100 % 1029,9 hPa 0,0 l/m 0 min 0 min 0,0 UV-I 81 W/m 5,1 km/h (1 Bft)
26.02.2013 09:12 0,8 C -0,4 C 100 % 1030,0 hPa 0,0 l/m 0 min 0 min 0,0 UV-I 109 W/m 5,1 km/h (1 Bft)
26.02.2013 09:14 0,8 C -0,4 C 100 % 1030,0 hPa 0,0 l/m 0 min 0 min 0,0 UV-I 102 W/m 0,0 km/h (0 Bft)
26.02.2013 09:16 0,8 C -0,4 C 100 % 1030,0 hPa 0,0 l/m 0 min 0 min 0,0 UV-I 109 W/m 0,0 km/h (0 Bft)
26.02.2013 09:18 0,8 C -0,4 C 100 % 1030,0 hPa 0,0 l/m 0 min 0 min 0,0 UV-I 116 W/m 0,0 km/h (0 Bft)
26.02.2013 09:20 0,8 C -0,4 C 100 % 1030,0 hPa 0,0 l/m 0 min 0 min 0,0 UV-I 132 W/m 0,0 km/h (0 Bft)
26.02.2013 09:22 0,8 C -0,4 C 100 % 1030,0 hPa 0,0 l/m 0 min 0 min 0,0 UV-I 91 W/m 5,1 km/h (1 Bft)
26.02.2013 09:24 0,9 C -0,4 C 100 % 1030,0 hPa 0,0 l/m 0 min 0 min 0,0 UV-I 141 W/m 5,1 km/h (1 Bft)
26.02.2013 09:26 0,9 C 0,1 C 100 % 1030,0 hPa 0,0 l/m 2 min 0 min 0,0 UV-I 197 W/m 0,0 km/h (0 Bft)
26.02.2013 09:28 0,9 C 0,1 C 100 % 1029,9 hPa 0,0 l/m 0 min 0 min 0,0 UV-I 134 W/m 0,0 km/h (0 Bft)
26.02.2013 09:30 1,0 C 0,1 C 100 % 1030,0 hPa 0,0 l/m 0 min 0 min 0,0 UV-I 121 W/m 2,6 km/h (1 Bft)
26.02.2013 09:32 1,1 C 0,1 C 100 % 1030,0 hPa 0,0 l/m 0 min 0 min 0,0 UV-I 104 W/m 0,0 km/h (0 Bft)
26.02.2013 09:34 1,1 C 0,1 C 100 % 1030,0 hPa 0,0 l/m 0 min 0 min 0,0 UV-I 91 W/m 0,0 km/h (0 Bft)
26.02.2013 09:36 1,1 C 0,1 C 100 % 1030,1 hPa 0,0 l/m 0 min 0 min 0,0 UV-I 88 W/m 0,0 km/h (0 Bft)
26.02.2013 09:38 1,2 C 0,1 C 100 % 1030,1 hPa 0,0 l/m 0 min 0 min 0,0 UV-I 77 W/m 0,0 km/h (0 Bft)
26.02.2013 09:40 1,2 C 0,1 C 100 % 1030,1 hPa 0,0 l/m 0 min 0 min 0,0 UV-I 74 W/m 0,0 km/h (0 Bft)
26.02.2013 09:42 1,2 C 0,1 C 100 % 1030,1 hPa 0,0 l/m 0 min 0 min 0,0 UV-I 84 W/m 0,0 km/h (0 Bft)
26.02.2013 09:44 1,2 C 0,1 C 100 % 1030,2 hPa 0,0 l/m 0 min 0 min 0,0 UV-I 79 W/m 0,0 km/h (0 Bft)
26.02.2013 09:46 1,3 C 0,1 C 100 % 1030,2 hPa 0,0 l/m 0 min 0 min 0,0 UV-I 95 W/m 0,0 km/h (0 Bft)
26.02.2013 09:48 1,3 C 0,7 C 100 % 1030,3 hPa 0,0 l/m 0 min 0 min 0,0 UV-I 120 W/m 0,0 km/h (0 Bft)
26.02.2013 09:50 1,3 C 0,7 C 100 % 1030,3 hPa 0,0 l/m 0 min 0 min 0,0 UV-I 109 W/m 0,0 km/h (0 Bft)
26.02.2013 09:52 1,3 C 0,7 C 100 % 1030,3 hPa 0,0 l/m 0 min 0 min 0,0 UV-I 104 W/m 0,0 km/h (0 Bft)
26.02.2013 09:54 1,3 C 0,7 C 100 % 1030,3 hPa 0,0 l/m 0 min 0 min 0,0 UV-I 109 W/m 5,1 km/h (1 Bft)
26.02.2013 09:56 1,3 C 0,7 C 100 % 1030,3 hPa 0,0 l/m 0 min 0 min 0,0 UV-I 137 W/m 0,0 km/h (0 Bft)
26.02.2013 09:58 1,3 C 0,7 C 100 % 1030,2 hPa 0,0 l/m 0 min 0 min 0,0 UV-I 144 W/m 5,1 km/h (1 Bft)
26.02.2013 10:00 1,3 C 0,7 C 100 % 1030,3 hPa 0,0 l/m 0 min 0 min 0,0 UV-I 128 W/m 2,6 km/h (1 Bft)
26.02.2013 10:02 1,4 C 1,2 C 100 % 1030,3 hPa 0,0 l/m 2 min 0 min 0,0 UV-I 279 W/m 2,6 km/h (1 Bft)
26.02.2013 10:04 1,4 C 1,2 C 100 % 1030,3 hPa 0,0 l/m 2 min 0 min 0,0 UV-I 301 W/m 0,0 km/h (0 Bft)
26.02.2013 10:06 1,6 C 1,2 C 100 % 1030,3 hPa 0,0 l/m 2 min 0 min 0,0 UV-I 278 W/m 2,6 km/h (1 Bft)
26.02.2013 10:08 1,7 C 1,2 C 100 % 1030,2 hPa 0,0 l/m 2 min 0 min 0,0 UV-I 274 W/m 7,7 km/h (2 Bft)
26.02.2013 10:10 1,8 C 1,2 C 100 % 1030,2 hPa 0,0 l/m 2 min 0 min 0,0 UV-I 283 W/m 5,1 km/h (1 Bft)
26.02.2013 10:12 1,8 C 1,8 C 100 % 1030,3 hPa 0,0 l/m 2 min 0 min 0,0 UV-I 290 W/m 2,6 km/h (1 Bft)
26.02.2013 10:14 1,9 C 1,8 C 100 % 1030,4 hPa 0,0 l/m 2 min 0 min 0,0 UV-I 297 W/m 0,0 km/h (0 Bft)
26.02.2013 10:16 2,1 C 1,8 C 100 % 1030,3 hPa 0,0 l/m 2 min 0 min 0,0 UV-I 257 W/m 0,0 km/h (0 Bft)
26.02.2013 10:18 2,1 C 1,8 C 100 % 1030,2 hPa 0,0 l/m 2 min 0 min 0,0 UV-I 283 W/m 0,0 km/h (0 Bft)
26.02.2013 10:20 2,2 C 1,8 C 100 % 1030,2 hPa 0,0 l/m 2 min 0 min 0,0 UV-I 278 W/m 7,7 km/h (2 Bft)
26.02.2013 10:22 2,3 C 1,8 C 100 % 1030,3 hPa 0,0 l/m 0 min 0 min 0,0 UV-I 206 W/m 5,1 km/h (1 Bft)
26.02.2013 10:24 2,4 C 2,3 C 100 % 1030,3 hPa 0,0 l/m 2 min 0 min 0,0 UV-I 216 W/m 0,0 km/h (0 Bft)
26.02.2013 10:26 2,4 C 2,3 C 100 % 1030,3 hPa 0,0 l/m 2 min 0 min 0,0 UV-I 223 W/m 0,0 km/h (0 Bft)
26.02.2013 10:28 2,6 C 2,3 C 100 % 1030,4 hPa 0,0 l/m 2 min 0 min 0,0 UV-I 229 W/m 5,1 km/h (1 Bft)
26.02.2013 10:30 2,6 C 2,3 C 100 % 1030,4 hPa 0,0 l/m 2 min 0 min 0,0 UV-I 227 W/m 5,1 km/h (1 Bft)
26.02.2013 10:32 2,7 C 2,3 C 100 % 1030,5 hPa 0,0 l/m 0 min 0 min 0,0 UV-I 218 W/m 2,6 km/h (1 Bft)
26.02.2013 10:34 2,7 C 1,8 C 100 % 1030,4 hPa 0,0 l/m 0 min 0 min 0,0 UV-I 221 W/m 0,0 km/h (0 Bft)
26.02.2013 10:36 2,8 C 1,8 C 100 % 1030,4 hPa 0,0 l/m 2 min 0 min 0,0 UV-I 260 W/m 7,7 km/h (2 Bft)
26.02.2013 10:38 2,8 C 1,8 C 100 % 1030,4 hPa 0,0 l/m 2 min 0 min 0,0 UV-I 301 W/m 2,6 km/h (1 Bft)
26.02.2013 10:40 2,9 C 2,3 C 100 % 1030,4 hPa 0,0 l/m 2 min 0 min 0,0 UV-I 315 W/m 0,0 km/h (0 Bft)
26.02.2013 10:42 3,0 C 2,3 C 100 % 1030,3 hPa 0,0 l/m 2 min 0 min 0,0 UV-I 346 W/m 5,1 km/h (1 Bft)
26.02.2013 10:44 3,1 C 2,3 C 100 % 1030,3 hPa 0,0 l/m 2 min 0 min 0,0 UV-I 302 W/m 5,1 km/h (1 Bft)
26.02.2013 10:46 3,1 C 2,3 C 100 % 1030,3 hPa 0,0 l/m 2 min 0 min 0,0 UV-I 353 W/m 7,7 km/h (2 Bft)
26.02.2013 10:48 3,2 C 2,3 C 100 % 1030,3 hPa 0,0 l/m 2 min 0 min 0,0 UV-I 385 W/m 0,0 km/h (0 Bft)
26.02.2013 10:50 3,3 C 2,9 C 100 % 1030,4 hPa 0,0 l/m 2 min 0 min 0,0 UV-I 371 W/m 0,0 km/h (0 Bft)
26.02.2013 10:52 3,4 C 2,3 C 100 % 1030,3 hPa 0,0 l/m 2 min 0 min 0,0 UV-I 308 W/m 2,6 km/h (1 Bft)
26.02.2013 10:54 3,4 C 2,3 C 100 % 1030,4 hPa 0,0 l/m 2 min 0 min 0,0 UV-I 262 W/m 5,1 km/h (1 Bft)
26.02.2013 10:56 3,5 C 2,3 C 100 % 1030,4 hPa 0,0 l/m 2 min 0 min 0,0 UV-I 332 W/m 0,0 km/h (0 Bft)
26.02.2013 10:58 3,6 C 2,3 C 100 % 1030,4 hPa 0,0 l/m 0 min 0 min 0,0 UV-I 227 W/m 2,6 km/h (1 Bft)
26.02.2013 11:00 3,6 C 2,3 C 100 % 1030,4 hPa 0,0 l/m 2 min 0 min 0,0 UV-I 345 W/m 2,6 km/h (1 Bft)
26.02.2013 11:02 3,7 C 2,3 C 100 % 1030,4 hPa 0,0 l/m 2 min 0 min 0,5 UV-I 339 W/m 0,0 km/h (0 Bft)
26.02.2013 11:04 3,7 C 2,3 C 99 % 1030,4 hPa 0,0 l/m 2 min 0 min 0,5 UV-I 369 W/m 2,6 km/h (1 Bft)
26.02.2013 11:06 3,8 C 2,9 C 99 % 1030,5 hPa 0,0 l/m 2 min 0 min 0,5 UV-I 366 W/m 2,6 km/h (1 Bft)
26.02.2013 11:08 3,8 C 2,9 C 99 % 1030,5 hPa 0,0 l/m 2 min 0 min 0,5 UV-I 373 W/m 7,7 km/h (2 Bft)
26.02.2013 11:10 3,9 C 2,9 C 99 % 1030,5 hPa 0,0 l/m 2 min 0 min 0,5 UV-I 315 W/m 10,3 km/h (2 Bft)
26.02.2013 11:12 3,9 C 2,9 C 99 % 1030,5 hPa 0,0 l/m 0 min 0 min 0,0 UV-I 188 W/m 10,3 km/h (2 Bft)
26.02.2013 11:14 4,0 C 2,9 C 98 % 1030,6 hPa 0,0 l/m 0 min 0 min 0,0 UV-I 202 W/m 2,6 km/h (1 Bft)
26.02.2013 11:16 4,1 C 2,9 C 98 % 1030,5 hPa 0,0 l/m 0 min 0 min 0,0 UV-I 144 W/m 10,3 km/h (2 Bft)
26.02.2013 11:18 4,1 C 2,9 C 97 % 1030,6 hPa 0,0 l/m 0 min 0 min 0,0 UV-I 167 W/m 10,3 km/h (2 Bft)
26.02.2013 11:20 4,1 C 2,9 C 97 % 1030,7 hPa 0,0 l/m 0 min 0 min 0,0 UV-I 174 W/m 0,0 km/h (0 Bft)
26.02.2013 11:22 4,2 C 3,4 C 97 % 1030,7 hPa 0,0 l/m 0 min 0 min 0,0 UV-I 176 W/m 7,7 km/h (2 Bft)
26.02.2013 11:24 4,2 C 3,4 C 96 % 1030,7 hPa 0,0 l/m 0 min 0 min 0,0 UV-I 171 W/m 10,3 km/h (2 Bft)
26.02.2013 11:26 4,2 C 3,4 C 95 % 1030,7 hPa 0,0 l/m 0 min 0 min 0,0 UV-I 160 W/m 2,6 km/h (1 Bft)
26.02.2013 11:28 4,3 C 3,4 C 95 % 1030,8 hPa 0,0 l/m 0 min 0 min 0,0 UV-I 174 W/m 7,7 km/h (2 Bft)
26.02.2013 11:30 4,3 C 3,4 C 94 % 1030,8 hPa 0,0 l/m 0 min 0 min 0,0 UV-I 171 W/m 0,0 km/h (0 Bft)
26.02.2013 11:32 4,3 C 3,4 C 94 % 1030,7 hPa 0,0 l/m 0 min 0 min 0,0 UV-I 195 W/m 2,6 km/h (1 Bft)
26.02.2013 11:34 4,4 C 4,0 C 94 % 1030,7 hPa 0,0 l/m 0 min 0 min 0,0 UV-I 220 W/m 5,1 km/h (1 Bft)
26.02.2013 11:36 4,5 C 4,0 C 94 % 1030,8 hPa 0,0 l/m 0 min 0 min 0,0 UV-I 214 W/m 0,0 km/h (0 Bft)
26.02.2013 11:38 4,6 C 4,0 C 93 % 1030,8 hPa 0,0 l/m 0 min 0 min 0,0 UV-I 207 W/m 7,7 km/h (2 Bft)
26.02.2013 11:40 4,6 C 4,0 C 93 % 1030,8 hPa 0,0 l/m 0 min 0 min 0,0 UV-I 225 W/m 5,1 km/h (1 Bft)
26.02.2013 11:42 4,7 C 4,0 C 92 % 1030,8 hPa 0,0 l/m 0 min 0 min 0,0 UV-I 211 W/m 2,6 km/h (1 Bft)
26.02.2013 11:44 4,8 C 4,6 C 92 % 1030,8 hPa 0,0 l/m 0 min 0 min 0,0 UV-I 207 W/m 7,7 km/h (2 Bft)
26.02.2013 11:46 4,8 C 4,6 C 92 % 1030,8 hPa 0,0 l/m 0 min 0 min 0,0 UV-I 239 W/m 5,1 km/h (1 Bft)
26.02.2013 11:48 4,9 C 4,6 C 92 % 1030,8 hPa 0,0 l/m 0 min 0 min 0,0 UV-I 236 W/m 5,1 km/h (1 Bft)
26.02.2013 11:50 5,0 C 4,6 C 91 % 1030,8 hPa 0,0 l/m 0 min 0 min 0,0 UV-I 230 W/m 7,7 km/h (2 Bft)
26.02.2013 11:52 5,1 C 4,6 C 91 % 1030,8 hPa 0,0 l/m 2 min 0 min 0,0 UV-I 272 W/m 5,1 km/h (1 Bft)
26.02.2013 11:54 5,1 C 4,6 C 90 % 1030,8 hPa 0,0 l/m 0 min 0 min 0,0 UV-I 262 W/m 10,3 km/h (2 Bft)
26.02.2013 11:56 5,1 C 4,6 C 90 % 1030,8 hPa 0,0 l/m 0 min 0 min 0,0 UV-I 251 W/m 7,7 km/h (2 Bft)
26.02.2013 11:58 5,2 C 5,1 C 90 % 1030,8 hPa 0,0 l/m 0 min 0 min 0,0 UV-I 267 W/m 10,3 km/h (2 Bft)
26.02.2013 12:00 5,3 C 5,1 C 89 % 1030,8 hPa 0,0 l/m 0 min 0 min 0,5 UV-I 265 W/m 10,3 km/h (2 Bft)
26.02.2013 12:02 5,3 C 5,1 C 89 % 1030,8 hPa 0,0 l/m 2 min 0 min 0,6 UV-I 332 W/m 7,7 km/h (2 Bft)
26.02.2013 12:04 5,3 C 5,1 C 88 % 1030,8 hPa 0,0 l/m 2 min 0 min 0,5 UV-I 306 W/m 10,3 km/h (2 Bft)
26.02.2013 12:06 5,3 C 5,1 C 88 % 1030,8 hPa 0,0 l/m 2 min 0 min 0,7 UV-I 353 W/m 10,3 km/h (2 Bft)
26.02.2013 12:08 5,4 C 5,1 C 88 % 1030,8 hPa 0,0 l/m 0 min 0 min 0,5 UV-I 260 W/m 12,9 km/h (3 Bft)
26.02.2013 12:10 5,5 C 5,7 C 88 % 1030,8 hPa 0,0 l/m 2 min 0 min 0,5 UV-I 297 W/m 12,9 km/h (3 Bft)
26.02.2013 12:12 5,6 C 5,7 C 88 % 1030,8 hPa 0,0 l/m 0 min 0 min 0,5 UV-I 248 W/m 7,7 km/h (2 Bft)
26.02.2013 12:14 5,6 C 5,7 C 87 % 1030,9 hPa 0,0 l/m 0 min 0 min 0,0 UV-I 248 W/m 10,3 km/h (2 Bft)
26.02.2013 12:16 5,6 C 5,1 C 87 % 1030,8 hPa 0,0 l/m 0 min 0 min 0,0 UV-I 220 W/m 7,7 km/h (2 Bft)
26.02.2013 12:18 5,7 C 5,1 C 87 % 1030,9 hPa 0,0 l/m 0 min 0 min 0,0 UV-I 172 W/m 10,3 km/h (2 Bft)
26.02.2013 12:20 5,6 C 5,1 C 87 % 1031,0 hPa 0,0 l/m 0 min 0 min 0,0 UV-I 151 W/m 15,4 km/h (3 Bft)
26.02.2013 12:22 5,6 C 5,1 C 87 % 1031,0 hPa 0,0 l/m 0 min 0 min 0,0 UV-I 139 W/m 10,3 km/h (2 Bft)
26.02.2013 12:24 5,6 C 4,6 C 86 % 1031,0 hPa 0,0 l/m 0 min 0 min 0,0 UV-I 151 W/m 20,6 km/h (4 Bft)
26.02.2013 12:26 5,4 C 4,6 C 86 % 1031,0 hPa 0,0 l/m 0 min 0 min 0,0 UV-I 135 W/m 12,9 km/h (3 Bft)
26.02.2013 12:28 5,3 C 4,6 C 86 % 1031,0 hPa 0,0 l/m 0 min 0 min 0,0 UV-I 135 W/m 10,3 km/h (2 Bft)
26.02.2013 12:30 5,3 C 4,6 C 86 % 1031,0 hPa 0,0 l/m 0 min 0 min 0,0 UV-I 125 W/m 15,4 km/h (3 Bft)
26.02.2013 12:32 5,2 C 4,0 C 86 % 1031,0 hPa 0,0 l/m 0 min 0 min 0,0 UV-I 137 W/m 15,4 km/h (3 Bft)
26.02.2013 12:34 5,1 C 4,0 C 86 % 1031,0 hPa 0,0 l/m 0 min 0 min 0,0 UV-I 128 W/m 18,0 km/h (3 Bft)
26.02.2013 12:36 5,1 C 4,0 C 87 % 1031,0 hPa 0,0 l/m 0 min 0 min 0,0 UV-I 114 W/m 12,9 km/h (3 Bft)
26.02.2013 12:38 5,0 C 4,0 C 87 % 1031,0 hPa 0,0 l/m 0 min 0 min 0,0 UV-I 114 W/m 18,0 km/h (3 Bft)
26.02.2013 12:40 4,9 C 4,0 C 87 % 1031,0 hPa 0,0 l/m 0 min 0 min 0,0 UV-I 123 W/m 15,4 km/h (3 Bft)
26.02.2013 12:42 4,9 C 4,0 C 87 % 1031,0 hPa 0,0 l/m 0 min 0 min 0,0 UV-I 132 W/m 12,9 km/h (3 Bft)
26.02.2013 12:44 4,9 C 4,6 C 88 % 1031,0 hPa 0,0 l/m 0 min 0 min 0,0 UV-I 137 W/m 10,3 km/h (2 Bft)
26.02.2013 12:46 4,8 C 4,0 C 88 % 1031,0 hPa 0,0 l/m 0 min 0 min 0,0 UV-I 132 W/m 12,9 km/h (3 Bft)
26.02.2013 12:48 4,8 C 4,0 C 88 % 1030,9 hPa 0,0 l/m 0 min 0 min 0,0 UV-I 128 W/m 12,9 km/h (3 Bft)
26.02.2013 12:50 4,8 C 4,0 C 88 % 1031,0 hPa 0,0 l/m 0 min 0 min 0,0 UV-I 123 W/m 12,9 km/h (3 Bft)
26.02.2013 12:52 4,7 C 4,0 C 88 % 1030,9 hPa 0,0 l/m 0 min 0 min 0,0 UV-I 121 W/m 10,3 km/h (2 Bft)
26.02.2013 12:54 4,7 C 4,0 C 88 % 1030,9 hPa 0,0 l/m 0 min 0 min 0,0 UV-I 128 W/m 15,4 km/h (3 Bft)
26.02.2013 12:56 4,7 C 4,0 C 89 % 1030,9 hPa 0,0 l/m 0 min 0 min 0,0 UV-I 146 W/m 10,3 km/h (2 Bft)
26.02.2013 12:58 4,7 C 4,6 C 89 % 1030,8 hPa 0,0 l/m 0 min 0 min 0,0 UV-I 165 W/m 7,7 km/h (2 Bft)
26.02.2013 13:00 4,7 C 4,6 C 89 % 1030,8 hPa 0,0 l/m 0 min 0 min 0,0 UV-I 169 W/m 12,9 km/h (3 Bft)
26.02.2013 13:02 4,7 C 4,6 C 89 % 1030,8 hPa 0,0 l/m 0 min 0 min 0,0 UV-I 165 W/m 12,9 km/h (3 Bft)
26.02.2013 13:04 4,7 C 4,6 C 89 % 1030,8 hPa 0,0 l/m 0 min 0 min 0,0 UV-I 156 W/m 12,9 km/h (3 Bft)
26.02.2013 13:06 4,7 C 4,6 C 89 % 1030,7 hPa 0,0 l/m 0 min 0 min 0,0 UV-I 139 W/m 10,3 km/h (2 Bft)
26.02.2013 13:08 4,7 C 4,6 C 89 % 1030,7 hPa 0,0 l/m 0 min 0 min 0,0 UV-I 169 W/m 12,9 km/h (3 Bft)
26.02.2013 13:10 4,7 C 4,6 C 89 % 1030,8 hPa 0,0 l/m 0 min 0 min 0,0 UV-I 171 W/m 10,3 km/h (2 Bft)
26.02.2013 13:12 4,7 C 4,6 C 89 % 1030,7 hPa 0,0 l/m 0 min 0 min 0,0 UV-I 162 W/m 7,7 km/h (2 Bft)
26.02.2013 13:14 4,8 C 4,6 C 90 % 1030,7 hPa 0,0 l/m 0 min 0 min 0,0 UV-I 121 W/m 10,3 km/h (2 Bft)
26.02.2013 13:16 4,8 C 4,6 C 89 % 1030,7 hPa 0,0 l/m 0 min 0 min 0,0 UV-I 107 W/m 12,9 km/h (3 Bft)
26.02.2013 13:18 4,7 C 4,6 C 89 % 1030,6 hPa 0,0 l/m 0 min 0 min 0,0 UV-I 132 W/m 10,3 km/h (2 Bft)
26.02.2013 13:20 4,7 C 4,0 C 89 % 1030,8 hPa 0,0 l/m 0 min 0 min 0,0 UV-I 139 W/m 12,9 km/h (3 Bft)
26.02.2013 13:22 4,7 C 4,6 C 89 % 1030,7 hPa 0,0 l/m 0 min 0 min 0,0 UV-I 148 W/m 20,6 km/h (4 Bft)
26.02.2013 13:24 4,7 C 4,6 C 90 % 1030,7 hPa 0,0 l/m 0 min 0 min 0,0 UV-I 162 W/m 5,1 km/h (1 Bft)
26.02.2013 13:26 4,7 C 4,6 C 90 % 1030,8 hPa 0,0 l/m 0 min 0 min 0,0 UV-I 148 W/m 0,0 km/h (0 Bft)
26.02.2013 13:28 4,7 C 4,6 C 90 % 1030,9 hPa 0,0 l/m 0 min 0 min 0,0 UV-I 118 W/m 10,3 km/h (2 Bft)
26.02.2013 13:30 4,7 C 4,6 C 90 % 1030,7 hPa 0,0 l/m 0 min 0 min 0,0 UV-I 113 W/m 7,7 km/h (2 Bft)
26.02.2013 13:32 4,7 C 4,6 C 90 % 1030,8 hPa 0,0 l/m 0 min 0 min 0,0 UV-I 97 W/m 18,0 km/h (3 Bft)
26.02.2013 13:34 4,7 C 4,0 C 89 % 1030,8 hPa 0,0 l/m 0 min 0 min 0,0 UV-I 90 W/m 12,9 km/h (3 Bft)
26.02.2013 13:36 4,7 C 4,0 C 90 % 1030,8 hPa 0,0 l/m 0 min 0 min 0,0 UV-I 95 W/m 0,0 km/h (0 Bft)
26.02.2013 13:38 4,7 C 4,0 C 90 % 1030,8 hPa 0,0 l/m 0 min 0 min 0,0 UV-I 88 W/m 0,0 km/h (0 Bft)
26.02.2013 13:40 4,7 C 4,0 C 90 % 1030,8 hPa 0,0 l/m 0 min 0 min 0,0 UV-I 79 W/m 7,7 km/h (2 Bft)
26.02.2013 13:42 4,7 C 4,0 C 90 % 1030,8 hPa 0,0 l/m 0 min 0 min 0,0 UV-I 83 W/m 2,6 km/h (1 Bft)
26.02.2013 13:44 4,7 C 4,0 C 90 % 1030,8 hPa 0,0 l/m 0 min 0 min 0,0 UV-I 84 W/m 2,6 km/h (1 Bft)
26.02.2013 13:46 4,7 C 4,0 C 90 % 1030,7 hPa 0,0 l/m 0 min 0 min 0,0 UV-I 77 W/m 5,1 km/h (1 Bft)
26.02.2013 13:48 4,7 C 4,0 C 90 % 1030,7 hPa 0,0 l/m 0 min 0 min 0,0 UV-I 83 W/m 7,7 km/h (2 Bft)
26.02.2013 13:50 4,7 C 4,0 C 90 % 1030,7 hPa 0,0 l/m 0 min 0 min 0,0 UV-I 134 W/m 10,3 km/h (2 Bft)
26.02.2013 13:52 4,7 C 4,0 C 90 % 1030,5 hPa 0,0 l/m 0 min 0 min 0,0 UV-I 174 W/m 10,3 km/h (2 Bft)
26.02.2013 13:54 4,7 C 4,6 C 90 % 1030,5 hPa 0,0 l/m 0 min 0 min 0,0 UV-I 197 W/m 10,3 km/h (2 Bft)
26.02.2013 13:56 4,7 C 4,6 C 90 % 1030,5 hPa 0,0 l/m 0 min 0 min 0,0 UV-I 193 W/m 12,9 km/h (3 Bft)
26.02.2013 13:58 4,7 C 5,1 C 90 % 1030,5 hPa 0,0 l/m 0 min 0 min 0,0 UV-I 179 W/m 10,3 km/h (2 Bft)
26.02.2013 14:00 4,8 C 5,1 C 90 % 1030,5 hPa 0,0 l/m 0 min 0 min 0,0 UV-I 186 W/m 15,4 km/h (3 Bft)
26.02.2013 14:02 4,8 C 5,1 C 90 % 1030,4 hPa 0,0 l/m 0 min 0 min 0,0 UV-I 156 W/m 12,9 km/h (3 Bft)
26.02.2013 14:04 4,8 C 5,1 C 90 % 1030,4 hPa 0,0 l/m 0 min 0 min 0,0 UV-I 146 W/m 7,7 km/h (2 Bft)
26.02.2013 14:06 4,9 C 5,1 C 90 % 1030,4 hPa 0,0 l/m 0 min 0 min 0,0 UV-I 146 W/m 7,7 km/h (2 Bft)
26.02.2013 14:08 4,9 C 5,1 C 90 % 1030,3 hPa 0,0 l/m 0 min 0 min 0,0 UV-I 153 W/m 7,7 km/h (2 Bft)
26.02.2013 14:10 4,9 C 5,1 C 90 % 1030,4 hPa 0,0 l/m 0 min 0 min 0,0 UV-I 153 W/m 7,7 km/h (2 Bft)
26.02.2013 14:12 5,0 C 5,1 C 90 % 1030,4 hPa 0,0 l/m 0 min 0 min 0,0 UV-I 151 W/m 15,4 km/h (3 Bft)
26.02.2013 14:14 5,0 C 5,1 C 90 % 1030,3 hPa 0,0 l/m 0 min 0 min 0,0 UV-I 156 W/m 10,3 km/h (2 Bft)
26.02.2013 14:16 5,1 C 5,1 C 90 % 1030,3 hPa 0,0 l/m 0 min 0 min 0,0 UV-I 174 W/m 12,9 km/h (3 Bft)
26.02.2013 14:18 5,1 C 5,1 C 90 % 1030,3 hPa 0,0 l/m 0 min 0 min 0,0 UV-I 134 W/m 12,9 km/h (3 Bft)
26.02.2013 14:20 5,1 C 5,1 C 90 % 1030,2 hPa 0,0 l/m 0 min 0 min 0,0 UV-I 125 W/m 7,7 km/h (2 Bft)
26.02.2013 14:22 5,1 C 5,1 C 90 % 1030,2 hPa 0,0 l/m 0 min 0 min 0,0 UV-I 114 W/m 7,7 km/h (2 Bft)
26.02.2013 14:24 5,1 C 4,6 C 90 % 1030,2 hPa 0,0 l/m 0 min 0 min 0,0 UV-I 125 W/m 18,0 km/h (3 Bft)
26.02.2013 14:26 5,1 C 4,6 C 89 % 1030,2 hPa 0,0 l/m 0 min 0 min 0,0 UV-I 139 W/m 12,9 km/h (3 Bft)
26.02.2013 14:28 5,1 C 4,6 C 90 % 1030,3 hPa 0,0 l/m 0 min 0 min 0,0 UV-I 144 W/m 20,6 km/h (4 Bft)
26.02.2013 14:30 5,1 C 4,6 C 89 % 1030,2 hPa 0,0 l/m 0 min 0 min 0,0 UV-I 104 W/m 15,4 km/h (3 Bft)
26.02.2013 14:32 5,1 C 4,6 C 90 % 1030,3 hPa 0,0 l/m 0 min 0 min 0,0 UV-I 104 W/m 10,3 km/h (2 Bft)
26.02.2013 14:34 5,1 C 4,6 C 90 % 1030,2 hPa 0,0 l/m 0 min 0 min 0,0 UV-I 113 W/m 5,1 km/h (1 Bft)
26.02.2013 14:36 5,1 C 4,6 C 90 % 1030,2 hPa 0,0 l/m 0 min 0 min 0,0 UV-I 109 W/m 15,4 km/h (3 Bft)
26.02.2013 14:38 5,1 C 4,6 C 90 % 1030,2 hPa 0,0 l/m 0 min 0 min 0,0 UV-I 125 W/m 12,9 km/h (3 Bft)
26.02.2013 14:40 5,1 C 4,6 C 90 % 1030,2 hPa 0,0 l/m 0 min 0 min 0,0 UV-I 121 W/m 15,4 km/h (3 Bft)
26.02.2013 14:42 5,1 C 4,6 C 90 % 1030,2 hPa 0,0 l/m 0 min 0 min 0,0 UV-I 118 W/m 15,4 km/h (3 Bft)
26.02.2013 14:44 5,1 C 4,6 C 90 % 1030,2 hPa 0,0 l/m 0 min 0 min 0,0 UV-I 127 W/m 12,9 km/h (3 Bft)
26.02.2013 14:46 5,1 C 5,1 C 90 % 1030,2 hPa 0,0 l/m 0 min 0 min 0,0 UV-I 127 W/m 7,7 km/h (2 Bft)
26.02.2013 14:48 5,2 C 5,1 C 90 % 1030,2 hPa 0,0 l/m 0 min 0 min 0,0 UV-I 128 W/m 12,9 km/h (3 Bft)
26.02.2013 14:50 5,2 C 5,1 C 90 % 1030,1 hPa 0,0 l/m 0 min 0 min 0,0 UV-I 125 W/m 12,9 km/h (3 Bft)
26.02.2013 14:52 5,2 C 4,6 C 90 % 1030,2 hPa 0,0 l/m 0 min 0 min 0,0 UV-I 127 W/m 18,0 km/h (3 Bft)
26.02.2013 14:54 5,2 C 5,1 C 90 % 1030,1 hPa 0,0 l/m 0 min 2 min 0,0 UV-I 132 W/m 12,9 km/h (3 Bft)
26.02.2013 14:56 5,2 C 5,1 C 90 % 1030,1 hPa 0,2 l/m 0 min 2 min 0,0 UV-I 121 W/m 12,9 km/h (3 Bft)
26.02.2013 14:58 5,2 C 4,6 C 90 % 1030,1 hPa 0,0 l/m 0 min 2 min 0,0 UV-I 114 W/m 15,4 km/h (3 Bft)
26.02.2013 15:00 5,3 C 5,1 C 90 % 1030,1 hPa 0,0 l/m 0 min 0 min 0,0 UV-I 107 W/m 7,7 km/h (2 Bft)
26.02.2013 15:02 5,3 C 5,1 C 90 % 1030,2 hPa 0,0 l/m 0 min 0 min 0,0 UV-I 111 W/m 2,6 km/h (1 Bft)
26.02.2013 15:04 5,3 C 5,1 C 90 % 1030,1 hPa 0,0 l/m 0 min 0 min 0,0 UV-I 109 W/m 0,0 km/h (0 Bft)
26.02.2013 15:06 5,3 C 5,1 C 90 % 1030,2 hPa 0,0 l/m 0 min 0 min 0,0 UV-I 113 W/m 5,1 km/h (1 Bft)
26.02.2013 15:08 5,4 C 5,1 C 90 % 1030,2 hPa 0,0 l/m 0 min 0 min 0,0 UV-I 107 W/m 5,1 km/h (1 Bft)
26.02.2013 15:10 5,4 C 5,1 C 90 % 1030,2 hPa 0,0 l/m 0 min 0 min 0,0 UV-I 100 W/m 18,0 km/h (3 Bft)
26.02.2013 15:12 5,4 C 5,1 C 90 % 1030,2 hPa 0,0 l/m 0 min 0 min 0,0 UV-I 95 W/m 7,7 km/h (2 Bft)
26.02.2013 15:14 5,4 C 5,1 C 90 % 1030,2 hPa 0,0 l/m 0 min 0 min 0,0 UV-I 91 W/m 10,3 km/h (2 Bft)
26.02.2013 15:16 5,4 C 5,1 C 90 % 1030,2 hPa 0,0 l/m 0 min 0 min 0,0 UV-I 83 W/m 10,3 km/h (2 Bft)
26.02.2013 15:18 5,4 C 5,1 C 90 % 1030,1 hPa 0,0 l/m 0 min 0 min 0,0 UV-I 91 W/m 10,3 km/h (2 Bft)
26.02.2013 15:20 5,4 C 5,1 C 89 % 1030,1 hPa 0,0 l/m 0 min 0 min 0,0 UV-I 74 W/m 5,1 km/h (1 Bft)
26.02.2013 15:22 5,4 C 4,6 C 89 % 1030,1 hPa 0,0 l/m 0 min 0 min 0,0 UV-I 62 W/m 5,1 km/h (1 Bft)
26.02.2013 15:24 5,4 C 4,6 C 90 % 1030,2 hPa 0,0 l/m 0 min 0 min 0,0 UV-I 76 W/m 2,6 km/h (1 Bft)
26.02.2013 15:26 5,4 C 4,6 C 90 % 1030,2 hPa 0,0 l/m 0 min 0 min 0,0 UV-I 83 W/m 2,6 km/h (1 Bft)
26.02.2013 15:28 5,4 C 5,1 C 90 % 1030,2 hPa 0,0 l/m 0 min 0 min 0,0 UV-I 88 W/m 7,7 km/h (2 Bft)
26.02.2013 15:30 5,4 C 5,1 C 90 % 1030,2 hPa 0,0 l/m 0 min 0 min 0,0 UV-I 76 W/m 7,7 km/h (2 Bft)
26.02.2013 15:32 5,4 C 4,6 C 90 % 1030,1 hPa 0,0 l/m 0 min 0 min 0,0 UV-I 83 W/m 7,7 km/h (2 Bft)
26.02.2013 15:34 5,4 C 5,1 C 90 % 1030,1 hPa 0,0 l/m 0 min 0 min 0,0 UV-I 79 W/m 2,6 km/h (1 Bft)
26.02.2013 15:36 5,5 C 4,6 C 90 % 1030,1 hPa 0,0 l/m 0 min 0 min 0,0 UV-I 77 W/m 7,7 km/h (2 Bft)
26.02.2013 15:38 5,4 C 4,6 C 90 % 1030,0 hPa 0,0 l/m 0 min 0 min 0,0 UV-I 63 W/m 7,7 km/h (2 Bft)
26.02.2013 15:40 5,5 C 4,6 C 90 % 1030,0 hPa 0,0 l/m 0 min 0 min 0,0 UV-I 72 W/m 7,7 km/h (2 Bft)
26.02.2013 15:42 5,5 C 4,6 C 90 % 1030,1 hPa 0,0 l/m 0 min 0 min 0,0 UV-I 77 W/m 7,7 km/h (2 Bft)
26.02.2013 15:44 5,5 C 4,6 C 90 % 1030,1 hPa 0,0 l/m 0 min 0 min 0,0 UV-I 60 W/m 7,7 km/h (2 Bft)
26.02.2013 15:46 5,5 C 4,6 C 90 % 1030,1 hPa 0,0 l/m 0 min 0 min 0,0 UV-I 60 W/m 0,0 km/h (0 Bft)
26.02.2013 15:48 5,5 C 4,6 C 90 % 1030,1 hPa 0,0 l/m 0 min 0 min 0,0 UV-I 56 W/m 2,6 km/h (1 Bft)
26.02.2013 15:50 5,5 C 4,6 C 89 % 1030,1 hPa 0,0 l/m 0 min 0 min 0,0 UV-I 46 W/m 10,3 km/h (2 Bft)
26.02.2013 15:52 5,5 C 4,6 C 89 % 1030,1 hPa 0,0 l/m 0 min 0 min 0,0 UV-I 32 W/m 7,7 km/h (2 Bft)
26.02.2013 15:54 5,5 C 4,6 C 89 % 1030,1 hPa 0,0 l/m 0 min 0 min 0,0 UV-I 33 W/m 7,7 km/h (2 Bft)
26.02.2013 15:56 5,5 C 4,6 C 89 % 1030,1 hPa 0,0 l/m 0 min 0 min 0,0 UV-I 39 W/m 10,3 km/h (2 Bft)
26.02.2013 15:58 5,4 C 4,6 C 90 % 1030,1 hPa 0,0 l/m 0 min 0 min 0,0 UV-I 53 W/m 7,7 km/h (2 Bft)
26.02.2013 16:00 5,4 C 4,6 C 89 % 1030,2 hPa 0,0 l/m 0 min 0 min 0,0 UV-I 65 W/m 23,2 km/h (4 Bft)
26.02.2013 16:02 5,4 C 4,6 C 90 % 1030,2 hPa 0,0 l/m 0 min 0 min 0,0 UV-I 63 W/m 7,7 km/h (2 Bft)
26.02.2013 16:04 5,4 C 4,6 C 90 % 1030,1 hPa 0,0 l/m 0 min 0 min 0,0 UV-I 60 W/m 5,1 km/h (1 Bft)
26.02.2013 16:06 5,4 C 4,6 C 90 % 1030,1 hPa 0,0 l/m 0 min 0 min 0,0 UV-I 47 W/m 12,9 km/h (3 Bft)
26.02.2013 16:08 5,4 C 4,6 C 90 % 1030,1 hPa 0,0 l/m 0 min 0 min 0,0 UV-I 35 W/m 0,0 km/h (0 Bft)
26.02.2013 16:10 5,4 C 4,6 C 90 % 1030,1 hPa 0,0 l/m 0 min 0 min 0,0 UV-I 44 W/m 2,6 km/h (1 Bft)
26.02.2013 16:12 5,4 C 4,6 C 90 % 1030,1 hPa 0,0 l/m 0 min 0 min 0,0 UV-I 37 W/m 7,7 km/h (2 Bft)
26.02.2013 16:14 5,4 C 4,6 C 90 % 1030,1 hPa 0,0 l/m 0 min 0 min 0,0 UV-I 35 W/m 10,3 km/h (2 Bft)
26.02.2013 16:16 5,4 C 4,6 C 90 % 1030,1 hPa 0,0 l/m 0 min 0 min 0,0 UV-I 62 W/m 2,6 km/h (1 Bft)
26.02.2013 16:18 5,4 C 4,6 C 90 % 1030,0 hPa 0,0 l/m 0 min 0 min 0,0 UV-I 56 W/m 2,6 km/h (1 Bft)
26.02.2013 16:20 5,4 C 4,6 C 90 % 1030,0 hPa 0,0 l/m 0 min 0 min 0,0 UV-I 63 W/m 12,9 km/h (3 Bft)
26.02.2013 16:22 5,4 C 4,6 C 90 % 1030,1 hPa 0,0 l/m 0 min 0 min 0,0 UV-I 79 W/m 10,3 km/h (2 Bft)
26.02.2013 16:24 5,4 C 4,6 C 90 % 1030,0 hPa 0,0 l/m 0 min 0 min 0,0 UV-I 88 W/m 2,6 km/h (1 Bft)
26.02.2013 16:26 5,4 C 4,6 C 90 % 1030,0 hPa 0,0 l/m 0 min 0 min 0,0 UV-I 95 W/m 7,7 km/h (2 Bft)
26.02.2013 16:28 5,4 C 4,6 C 90 % 1030,0 hPa 0,0 l/m 0 min 0 min 0,0 UV-I 77 W/m 15,4 km/h (3 Bft)
26.02.2013 16:30 5,4 C 4,6 C 90 % 1029,9 hPa 0,0 l/m 0 min 0 min 0,0 UV-I 63 W/m 10,3 km/h (2 Bft)
26.02.2013 16:32 5,4 C 4,6 C 90 % 1029,9 hPa 0,0 l/m 0 min 0 min 0,0 UV-I 53 W/m 12,9 km/h (3 Bft)
26.02.2013 16:34 5,4 C 4,6 C 90 % 1029,9 hPa 0,0 l/m 0 min 0 min 0,0 UV-I 46 W/m 7,7 km/h (2 Bft)
26.02.2013 16:36 5,4 C 4,6 C 90 % 1029,9 hPa 0,0 l/m 0 min 0 min 0,0 UV-I 46 W/m 7,7 km/h (2 Bft)
26.02.2013 16:38 5,4 C 4,6 C 90 % 1029,9 hPa 0,0 l/m 0 min 0 min 0,0 UV-I 40 W/m 5,1 km/h (1 Bft)
26.02.2013 16:40 5,4 C 4,6 C 90 % 1029,8 hPa 0,0 l/m 0 min 0 min 0,0 UV-I 35 W/m 7,7 km/h (2 Bft)
26.02.2013 16:42 5,3 C 4,0 C 90 % 1029,9 hPa 0,0 l/m 0 min 0 min 0,0 UV-I 32 W/m 10,3 km/h (2 Bft)
26.02.2013 16:44 5,3 C 4,0 C 90 % 1029,9 hPa 0,0 l/m 0 min 0 min 0,0 UV-I 40 W/m 10,3 km/h (2 Bft)
26.02.2013 16:46 5,3 C 4,0 C 90 % 1030,0 hPa 0,0 l/m 0 min 0 min 0,0 UV-I 32 W/m 10,3 km/h (2 Bft)
26.02.2013 16:48 5,3 C 4,0 C 90 % 1029,9 hPa 0,0 l/m 0 min 0 min 0,0 UV-I 37 W/m 15,4 km/h (3 Bft)
26.02.2013 16:50 5,2 C 4,0 C 90 % 1029,9 hPa 0,0 l/m 0 min 0 min 0,0 UV-I 39 W/m 18,0 km/h (3 Bft)
26.02.2013 16:52 5,2 C 4,0 C 90 % 1029,9 hPa 0,0 l/m 0 min 0 min 0,0 UV-I 32 W/m 20,6 km/h (4 Bft)
26.02.2013 16:54 5,1 C 4,0 C 90 % 1029,9 hPa 0,0 l/m 0 min 0 min 0,0 UV-I 26 W/m 18,0 km/h (3 Bft)
26.02.2013 16:56 5,1 C 4,0 C 90 % 1029,9 hPa 0,0 l/m 0 min 0 min 0,0 UV-I 26 W/m 15,4 km/h (3 Bft)
26.02.2013 16:58 5,1 C 4,0 C 90 % 1030,0 hPa 0,0 l/m 0 min 0 min 0,0 UV-I 19 W/m 20,6 km/h (4 Bft)
26.02.2013 17:00 5,1 C 4,0 C 90 % 1030,0 hPa 0,0 l/m 0 min 0 min 0,0 UV-I 18 W/m 12,9 km/h (3 Bft)
26.02.2013 17:02 5,0 C 4,0 C 91 % 1030,0 hPa 0,0 l/m 0 min 0 min 0,0 UV-I 16 W/m 10,3 km/h (2 Bft)
26.02.2013 17:04 5,0 C 4,0 C 91 % 1030,1 hPa 0,0 l/m 0 min 0 min 0,0 UV-I 19 W/m 10,3 km/h (2 Bft)
26.02.2013 17:06 4,9 C 3,4 C 91 % 1030,1 hPa 0,0 l/m 0 min 0 min 0,0 UV-I 23 W/m 10,3 km/h (2 Bft)
26.02.2013 17:08 4,9 C 3,4 C 91 % 1030,1 hPa 0,0 l/m 0 min 0 min 0,0 UV-I 25 W/m 15,4 km/h (3 Bft)
26.02.2013 17:10 4,8 C 3,4 C 91 % 1030,1 hPa 0,0 l/m 0 min 0 min 0,0 UV-I 21 W/m 12,9 km/h (3 Bft)
26.02.2013 17:12 4,8 C 3,4 C 91 % 1030,1 hPa 0,0 l/m 0 min 0 min 0,0 UV-I 18 W/m 23,2 km/h (4 Bft)
26.02.2013 17:14 4,8 C 3,4 C 91 % 1030,1 hPa 0,0 l/m 0 min 0 min 0,0 UV-I 16 W/m 12,9 km/h (3 Bft)
26.02.2013 17:16 4,7 C 3,4 C 92 % 1030,1 hPa 0,0 l/m 0 min 0 min 0,0 UV-I 14 W/m 12,9 km/h (3 Bft)
26.02.2013 17:18 4,7 C 3,4 C 92 % 1030,1 hPa 0,0 l/m 0 min 0 min 0,0 UV-I 14 W/m 18,0 km/h (3 Bft)
26.02.2013 17:20 4,6 C 3,4 C 92 % 1030,1 hPa 0,0 l/m 0 min 0 min 0,0 UV-I 11 W/m 23,2 km/h (4 Bft)
26.02.2013 17:22 4,6 C 3,4 C 92 % 1030,1 hPa 0,0 l/m 0 min 0 min 0,0 UV-I 11 W/m 12,9 km/h (3 Bft)
26.02.2013 17:24 4,6 C 3,4 C 92 % 1030,2 hPa 0,0 l/m 0 min 0 min 0,0 UV-I 9 W/m 23,2 km/h (4 Bft)
26.02.2013 17:26 4,5 C 3,4 C 92 % 1030,2 hPa 0,0 l/m 0 min 0 min 0,0 UV-I 11 W/m 15,4 km/h (3 Bft)
26.02.2013 17:28 4,5 C 3,4 C 92 % 1030,2 hPa 0,0 l/m 0 min 0 min 0,0 UV-I 9 W/m 10,3 km/h (2 Bft)
26.02.2013 17:30 4,5 C 3,4 C 92 % 1030,2 hPa 0,0 l/m 0 min 0 min 0,0 UV-I 9 W/m 5,1 km/h (1 Bft)
26.02.2013 17:32 4,4 C 3,4 C 92 % 1030,2 hPa 0,0 l/m 0 min 0 min 0,0 UV-I 9 W/m 18,0 km/h (3 Bft)
26.02.2013 17:34 4,4 C 3,4 C 92 % 1030,2 hPa 0,0 l/m 0 min 0 min 0,0 UV-I 7 W/m 7,7 km/h (2 Bft)
26.02.2013 17:36 4,4 C 3,4 C 92 % 1030,2 hPa 0,0 l/m 0 min 0 min 0,0 UV-I 11 W/m 12,9 km/h (3 Bft)
26.02.2013 17:38 4,4 C 3,4 C 92 % 1030,2 hPa 0,0 l/m 0 min 0 min 0,0 UV-I 5 W/m 12,9 km/h (3 Bft)
26.02.2013 17:40 4,3 C 3,4 C 92 % 1030,3 hPa 0,0 l/m 0 min 0 min 0,0 UV-I 5 W/m 12,9 km/h (3 Bft)
26.02.2013 17:42 4,3 C 2,9 C 92 % 1030,2 hPa 0,0 l/m 0 min 0 min 0,0 UV-I 5 W/m 20,6 km/h (4 Bft)
26.02.2013 17:44 4,3 C 2,9 C 92 % 1030,3 hPa 0,0 l/m 0 min 0 min 0,0 UV-I 5 W/m 23,2 km/h (4 Bft)
26.02.2013 17:46 4,2 C 2,9 C 92 % 1030,3 hPa 0,0 l/m 0 min 0 min 0,0 UV-I 0 W/m 15,4 km/h (3 Bft)
26.02.2013 17:48 4,2 C 2,9 C 92 % 1030,2 hPa 0,0 l/m 0 min 0 min 0,0 UV-I 0 W/m 12,9 km/h (3 Bft)
26.02.2013 17:50 4,2 C 2,9 C 92 % 1030,2 hPa 0,0 l/m 0 min 0 min 0,0 UV-I 0 W/m 15,4 km/h (3 Bft)
26.02.2013 17:52 4,1 C 2,9 C 92 % 1030,3 hPa 0,0 l/m 0 min 0 min 0,0 UV-I 0 W/m 12,9 km/h (3 Bft)
26.02.2013 17:54 4,1 C 2,9 C 93 % 1030,3 hPa 0,0 l/m 0 min 0 min 0,0 UV-I 0 W/m 10,3 km/h (2 Bft)
26.02.2013 17:56 4,1 C 2,9 C 93 % 1030,3 hPa 0,0 l/m 0 min 0 min 0,0 UV-I 0 W/m 10,3 km/h (2 Bft)
26.02.2013 17:58 4,1 C 2,9 C 93 % 1030,3 hPa 0,0 l/m 0 min 0 min 0,0 UV-I 0 W/m 10,3 km/h (2 Bft)
26.02.2013 18:00 4,0 C 2,9 C 93 % 1030,3 hPa 0,0 l/m 0 min 0 min 0,0 UV-I 0 W/m 15,4 km/h (3 Bft)
26.02.2013 18:02 3,9 C 2,9 C 93 % 1030,3 hPa 0,0 l/m 0 min 0 min 0,0 UV-I 0 W/m 12,9 km/h (3 Bft)
26.02.2013 18:04 3,9 C 2,9 C 93 % 1030,4 hPa 0,0 l/m 0 min 0 min 0,0 UV-I 0 W/m 10,3 km/h (2 Bft)
26.02.2013 18:06 3,9 C 2,9 C 93 % 1030,4 hPa 0,0 l/m 0 min 0 min 0,0 UV-I 0 W/m 7,7 km/h (2 Bft)
26.02.2013 18:08 3,9 C 2,9 C 93 % 1030,3 hPa 0,0 l/m 0 min 0 min 0,0 UV-I 0 W/m 10,3 km/h (2 Bft)
26.02.2013 18:10 3,8 C 2,9 C 93 % 1030,4 hPa 0,0 l/m 0 min 0 min 0,0 UV-I 0 W/m 12,9 km/h (3 Bft)
26.02.2013 18:12 3,8 C 2,9 C 93 % 1030,3 hPa 0,0 l/m 0 min 0 min 0,0 UV-I 0 W/m 10,3 km/h (2 Bft)
26.02.2013 18:14 3,8 C 2,9 C 93 % 1030,3 hPa 0,0 l/m 0 min 0 min 0,0 UV-I 0 W/m 10,3 km/h (2 Bft)
26.02.2013 18:16 3,8 C 2,9 C 94 % 1030,4 hPa 0,0 l/m 0 min 0 min 0,0 UV-I 0 W/m 18,0 km/h (3 Bft)
26.02.2013 18:18 3,8 C 2,9 C 94 % 1030,4 hPa 0,0 l/m 0 min 0 min 0,0 UV-I 0 W/m 15,4 km/h (3 Bft)
26.02.2013 18:20 3,8 C 2,9 C 94 % 1030,4 hPa 0,0 l/m 0 min 0 min 0,0 UV-I 0 W/m 7,7 km/h (2 Bft)
26.02.2013 18:22 3,8 C 2,3 C 94 % 1030,5 hPa 0,0 l/m 0 min 0 min 0,0 UV-I 0 W/m 10,3 km/h (2 Bft)
26.02.2013 18:24 3,7 C 2,3 C 94 % 1030,5 hPa 0,0 l/m 0 min 0 min 0,0 UV-I 0 W/m 7,7 km/h (2 Bft)
26.02.2013 18:26 3,7 C 2,3 C 94 % 1030,4 hPa 0,0 l/m 0 min 0 min 0,0 UV-I 0 W/m 10,3 km/h (2 Bft)
26.02.2013 18:28 3,7 C 2,3 C 94 % 1030,5 hPa 0,0 l/m 0 min 0 min 0,0 UV-I 0 W/m 12,9 km/h (3 Bft)
26.02.2013 18:30 3,7 C 2,3 C 94 % 1030,5 hPa 0,0 l/m 0 min 0 min 0,0 UV-I 0 W/m 7,7 km/h (2 Bft)
26.02.2013 18:32 3,7 C 2,3 C 94 % 1030,5 hPa 0,0 l/m 0 min 0 min 0,0 UV-I 0 W/m 12,9 km/h (3 Bft)
26.02.2013 18:34 3,7 C 2,3 C 94 % 1030,4 hPa 0,0 l/m 0 min 0 min 0,0 UV-I 0 W/m 7,7 km/h (2 Bft)
26.02.2013 18:36 3,6 C 2,3 C 94 % 1030,5 hPa 0,0 l/m 0 min 0 min 0,0 UV-I 0 W/m 10,3 km/h (2 Bft)
26.02.2013 18:38 3,6 C 2,3 C 94 % 1030,5 hPa 0,0 l/m 0 min 0 min 0,0 UV-I 0 W/m 12,9 km/h (3 Bft)
26.02.2013 18:40 3,6 C 2,3 C 94 % 1030,4 hPa 0,0 l/m 0 min 0 min 0,0 UV-I 0 W/m 10,3 km/h (2 Bft)
26.02.2013 18:42 3,6 C 2,3 C 94 % 1030,5 hPa 0,0 l/m 0 min 0 min 0,0 UV-I 0 W/m 12,9 km/h (3 Bft)
26.02.2013 18:44 3,6 C 2,3 C 94 % 1030,5 hPa 0,0 l/m 0 min 0 min 0,0 UV-I 0 W/m 15,4 km/h (3 Bft)
26.02.2013 18:46 3,6 C 2,3 C 94 % 1030,5 hPa 0,0 l/m 0 min 0 min 0,0 UV-I 0 W/m 7,7 km/h (2 Bft)
26.02.2013 18:48 3,6 C 2,3 C 95 % 1030,5 hPa 0,0 l/m 0 min 0 min 0,0 UV-I 0 W/m 10,3 km/h (2 Bft)
26.02.2013 18:50 3,6 C 2,3 C 95 % 1030,5 hPa 0,0 l/m 0 min 0 min 0,0 UV-I 0 W/m 12,9 km/h (3 Bft)
26.02.2013 18:52 3,6 C 2,3 C 95 % 1030,5 hPa 0,0 l/m 0 min 0 min 0,0 UV-I 0 W/m 7,7 km/h (2 Bft)
26.02.2013 18:54 3,6 C 2,3 C 95 % 1030,5 hPa 0,0 l/m 0 min 0 min 0,0 UV-I 0 W/m 10,3 km/h (2 Bft)
26.02.2013 18:56 3,6 C 2,3 C 95 % 1030,5 hPa 0,0 l/m 0 min 0 min 0,0 UV-I 0 W/m 15,4 km/h (3 Bft)
26.02.2013 18:58 3,6 C 2,3 C 95 % 1030,5 hPa 0,0 l/m 0 min 0 min 0,0 UV-I 0 W/m 5,1 km/h (1 Bft)
26.02.2013 19:00 3,5 C 2,3 C 95 % 1030,6 hPa 0,0 l/m 0 min 0 min 0,0 UV-I 0 W/m 10,3 km/h (2 Bft)
26.02.2013 19:02 3,5 C 2,3 C 95 % 1030,6 hPa 0,0 l/m 0 min 0 min 0,0 UV-I 0 W/m 7,7 km/h (2 Bft)
26.02.2013 19:04 3,5 C 2,3 C 95 % 1030,6 hPa 0,0 l/m 0 min 0 min 0,0 UV-I 0 W/m 10,3 km/h (2 Bft)
26.02.2013 19:06 3,5 C 2,3 C 95 % 1030,6 hPa 0,0 l/m 0 min 0 min 0,0 UV-I 0 W/m 7,7 km/h (2 Bft)
26.02.2013 19:08 3,5 C 2,3 C 95 % 1030,6 hPa 0,0 l/m 0 min 0 min 0,0 UV-I 0 W/m 7,7 km/h (2 Bft)
26.02.2013 19:10 3,5 C 2,3 C 95 % 1030,6 hPa 0,0 l/m 0 min 0 min 0,0 UV-I 0 W/m 10,3 km/h (2 Bft)
26.02.2013 19:12 3,4 C 2,3 C 95 % 1030,6 hPa 0,0 l/m 0 min 0 min 0,0 UV-I 0 W/m 10,3 km/h (2 Bft)
26.02.2013 19:14 3,4 C 2,3 C 95 % 1030,5 hPa 0,0 l/m 0 min 0 min 0,0 UV-I 0 W/m 12,9 km/h (3 Bft)
26.02.2013 19:16 3,4 C 2,3 C 95 % 1030,5 hPa 0,0 l/m 0 min 0 min 0,0 UV-I 0 W/m 10,3 km/h (2 Bft)
26.02.2013 19:18 3,4 C 2,3 C 95 % 1030,7 hPa 0,0 l/m 0 min 0 min 0,0 UV-I 0 W/m 7,7 km/h (2 Bft)
26.02.2013 19:20 3,4 C 2,3 C 95 % 1030,7 hPa 0,0 l/m 0 min 0 min 0,0 UV-I 0 W/m 15,4 km/h (3 Bft)
26.02.2013 19:22 3,4 C 2,3 C 95 % 1030,6 hPa 0,0 l/m 0 min 0 min 0,0 UV-I 0 W/m 10,3 km/h (2 Bft)
26.02.2013 19:24 3,4 C 2,3 C 95 % 1030,6 hPa 0,0 l/m 0 min 0 min 0,0 UV-I 0 W/m 10,3 km/h (2 Bft)
26.02.2013 19:26 3,4 C 2,3 C 95 % 1030,7 hPa 0,0 l/m 0 min 0 min 0,0 UV-I 0 W/m 7,7 km/h (2 Bft)
26.02.2013 19:28 3,4 C 2,3 C 95 % 1030,6 hPa 0,0 l/m 0 min 0 min 0,0 UV-I 0 W/m 10,3 km/h (2 Bft)
26.02.2013 19:30 3,4 C 2,3 C 95 % 1030,6 hPa 0,0 l/m 0 min 0 min 0,0 UV-I 0 W/m 15,4 km/h (3 Bft)
26.02.2013 19:32 3,4 C 2,3 C 95 % 1030,7 hPa 0,0 l/m 0 min 0 min 0,0 UV-I 0 W/m 18,0 km/h (3 Bft)
26.02.2013 19:34 3,4 C 2,3 C 95 % 1030,6 hPa 0,0 l/m 0 min 0 min 0,0 UV-I 0 W/m 18,0 km/h (3 Bft)
26.02.2013 19:36 3,4 C 2,3 C 95 % 1030,6 hPa 0,0 l/m 0 min 0 min 0,0 UV-I 0 W/m 12,9 km/h (3 Bft)
26.02.2013 19:38 3,4 C 2,3 C 95 % 1030,6 hPa 0,0 l/m 0 min 0 min 0,0 UV-I 0 W/m 12,9 km/h (3 Bft)
26.02.2013 19:40 3,4 C 2,3 C 95 % 1030,7 hPa 0,0 l/m 0 min 0 min 0,0 UV-I 0 W/m 15,4 km/h (3 Bft)
26.02.2013 19:42 3,4 C 2,3 C 95 % 1030,7 hPa 0,0 l/m 0 min 0 min 0,0 UV-I 0 W/m 10,3 km/h (2 Bft)
26.02.2013 19:44 3,4 C 2,3 C 95 % 1030,7 hPa 0,0 l/m 0 min 0 min 0,0 UV-I 0 W/m 12,9 km/h (3 Bft)
26.02.2013 19:46 3,4 C 2,3 C 95 % 1030,7 hPa 0,0 l/m 0 min 0 min 0,0 UV-I 0 W/m 12,9 km/h (3 Bft)
26.02.2013 19:48 3,4 C 2,3 C 95 % 1030,8 hPa 0,0 l/m 0 min 0 min 0,0 UV-I 0 W/m 12,9 km/h (3 Bft)
26.02.2013 19:50 3,4 C 2,3 C 95 % 1030,8 hPa 0,0 l/m 0 min 0 min 0,0 UV-I 0 W/m 10,3 km/h (2 Bft)
26.02.2013 19:52 3,4 C 2,3 C 95 % 1030,8 hPa 0,0 l/m 0 min 0 min 0,0 UV-I 0 W/m 10,3 km/h (2 Bft)
26.02.2013 19:54 3,4 C 2,3 C 95 % 1030,8 hPa 0,0 l/m 0 min 0 min 0,0 UV-I 0 W/m 18,0 km/h (3 Bft)
26.02.2013 19:56 3,4 C 2,3 C 95 % 1030,8 hPa 0,0 l/m 0 min 0 min 0,0 UV-I 0 W/m 12,9 km/h (3 Bft)
26.02.2013 19:58 3,4 C 2,3 C 95 % 1030,8 hPa 0,0 l/m 0 min 0 min 0,0 UV-I 0 W/m 10,3 km/h (2 Bft)
26.02.2013 20:00 3,4 C 2,3 C 95 % 1030,8 hPa 0,0 l/m 0 min 0 min 0,0 UV-I 0 W/m 12,9 km/h (3 Bft)
26.02.2013 20:02 3,4 C 2,3 C 95 % 1030,8 hPa 0,0 l/m 0 min 0 min 0,0 UV-I 0 W/m 12,9 km/h (3 Bft)
26.02.2013 20:04 3,4 C 2,3 C 95 % 1030,8 hPa 0,0 l/m 0 min 0 min 0,0 UV-I 0 W/m 10,3 km/h (2 Bft)
26.02.2013 20:06 3,4 C 2,3 C 95 % 1030,8 hPa 0,0 l/m 0 min 0 min 0,0 UV-I 0 W/m 7,7 km/h (2 Bft)
26.02.2013 20:08 3,4 C 2,3 C 95 % 1030,7 hPa 0,0 l/m 0 min 0 min 0,0 UV-I 0 W/m 10,3 km/h (2 Bft)
26.02.2013 20:10 3,4 C 2,3 C 95 % 1030,7 hPa 0,0 l/m 0 min 0 min 0,0 UV-I 0 W/m 10,3 km/h (2 Bft)
26.02.2013 20:12 3,4 C 2,3 C 95 % 1030,7 hPa 0,0 l/m 0 min 0 min 0,0 UV-I 0 W/m 18,0 km/h (3 Bft)
26.02.2013 20:14 3,4 C 2,3 C 95 % 1030,7 hPa 0,0 l/m 0 min 0 min 0,0 UV-I 0 W/m 23,2 km/h (4 Bft)
26.02.2013 20:16 3,4 C 2,3 C 95 % 1030,7 hPa 0,0 l/m 0 min 0 min 0,0 UV-I 0 W/m 10,3 km/h (2 Bft)
26.02.2013 20:18 3,4 C 2,3 C 95 % 1030,7 hPa 0,0 l/m 0 min 0 min 0,0 UV-I 0 W/m 10,3 km/h (2 Bft)
26.02.2013 20:20 3,4 C 2,3 C 95 % 1030,7 hPa 0,0 l/m 0 min 0 min 0,0 UV-I 0 W/m 10,3 km/h (2 Bft)
26.02.2013 20:22 3,4 C 2,3 C 95 % 1030,7 hPa 0,0 l/m 0 min 0 min 0,0 UV-I 0 W/m 7,7 km/h (2 Bft)
26.02.2013 20:24 3,4 C 2,3 C 95 % 1030,8 hPa 0,0 l/m 0 min 0 min 0,0 UV-I 0 W/m 7,7 km/h (2 Bft)
26.02.2013 20:26 3,4 C 2,3 C 95 % 1030,8 hPa 0,0 l/m 0 min 0 min 0,0 UV-I 0 W/m 7,7 km/h (2 Bft)
26.02.2013 20:28 3,4 C 2,3 C 95 % 1030,7 hPa 0,0 l/m 0 min 0 min 0,0 UV-I 0 W/m 10,3 km/h (2 Bft)
26.02.2013 20:30 3,4 C 2,3 C 95 % 1030,7 hPa 0,0 l/m 0 min 0 min 0,0 UV-I 0 W/m 12,9 km/h (3 Bft)
26.02.2013 20:32 3,4 C 2,3 C 95 % 1030,8 hPa 0,0 l/m 0 min 0 min 0,0 UV-I 0 W/m 10,3 km/h (2 Bft)
26.02.2013 20:34 3,4 C 2,3 C 95 % 1030,8 hPa 0,0 l/m 0 min 0 min 0,0 UV-I 0 W/m 2,6 km/h (1 Bft)
26.02.2013 20:36 3,4 C 2,3 C 95 % 1030,8 hPa 0,0 l/m 0 min 0 min 0,0 UV-I 0 W/m 7,7 km/h (2 Bft)
26.02.2013 20:38 3,4 C 2,3 C 95 % 1030,9 hPa 0,0 l/m 0 min 0 min 0,0 UV-I 0 W/m 12,9 km/h (3 Bft)
26.02.2013 20:40 3,4 C 2,3 C 95 % 1030,9 hPa 0,0 l/m 0 min 0 min 0,0 UV-I 0 W/m 7,7 km/h (2 Bft)
26.02.2013 20:42 3,4 C 2,3 C 95 % 1030,8 hPa 0,0 l/m 0 min 0 min 0,0 UV-I 0 W/m 7,7 km/h (2 Bft)
26.02.2013 20:44 3,4 C 2,3 C 95 % 1030,9 hPa 0,0 l/m 0 min 0 min 0,0 UV-I 0 W/m 5,1 km/h (1 Bft)
26.02.2013 20:46 3,4 C 2,3 C 95 % 1030,9 hPa 0,0 l/m 0 min 0 min 0,0 UV-I 0 W/m 10,3 km/h (2 Bft)
26.02.2013 20:48 3,4 C 2,3 C 95 % 1030,9 hPa 0,0 l/m 0 min 0 min 0,0 UV-I 0 W/m 7,7 km/h (2 Bft)
26.02.2013 20:50 3,4 C 2,3 C 95 % 1031,0 hPa 0,0 l/m 0 min 0 min 0,0 UV-I 0 W/m 10,3 km/h (2 Bft)
26.02.2013 20:52 3,4 C 2,3 C 95 % 1030,9 hPa 0,0 l/m 0 min 0 min 0,0 UV-I 0 W/m 7,7 km/h (2 Bft)
26.02.2013 20:54 3,4 C 2,3 C 95 % 1030,9 hPa 0,0 l/m 0 min 0 min 0,0 UV-I 0 W/m 12,9 km/h (3 Bft)
26.02.2013 20:56 3,4 C 2,3 C 95 % 1030,9 hPa 0,0 l/m 0 min 0 min 0,0 UV-I 0 W/m 12,9 km/h (3 Bft)
26.02.2013 20:58 3,4 C 2,3 C 95 % 1031,0 hPa 0,0 l/m 0 min 0 min 0,0 UV-I 0 W/m 10,3 km/h (2 Bft)
26.02.2013 21:00 3,4 C 2,3 C 95 % 1030,9 hPa 0,0 l/m 0 min 0 min 0,0 UV-I 0 W/m 7,7 km/h (2 Bft)
26.02.2013 21:02 3,3 C 2,3 C 95 % 1031,0 hPa 0,0 l/m 0 min 0 min 0,0 UV-I 0 W/m 7,7 km/h (2 Bft)
26.02.2013 21:04 3,3 C 2,3 C 95 % 1031,0 hPa 0,0 l/m 0 min 0 min 0,0 UV-I 0 W/m 7,7 km/h (2 Bft)
26.02.2013 21:06 3,3 C 2,3 C 95 % 1031,0 hPa 0,0 l/m 0 min 0 min 0,0 UV-I 0 W/m 10,3 km/h (2 Bft)
26.02.2013 21:08 3,3 C 2,3 C 95 % 1031,0 hPa 0,0 l/m 0 min 0 min 0,0 UV-I 0 W/m 7,7 km/h (2 Bft)
26.02.2013 21:10 3,3 C 2,3 C 95 % 1031,0 hPa 0,0 l/m 0 min 0 min 0,0 UV-I 0 W/m 7,7 km/h (2 Bft)
26.02.2013 21:12 3,3 C 2,3 C 95 % 1031,0 hPa 0,0 l/m 0 min 0 min 0,0 UV-I 0 W/m 10,3 km/h (2 Bft)
26.02.2013 21:14 3,3 C 2,3 C 95 % 1031,0 hPa 0,0 l/m 0 min 0 min 0,0 UV-I 0 W/m 5,1 km/h (1 Bft)
26.02.2013 21:16 3,3 C 2,3 C 95 % 1031,1 hPa 0,0 l/m 0 min 0 min 0,0 UV-I 0 W/m 7,7 km/h (2 Bft)
26.02.2013 21:18 3,3 C 2,3 C 95 % 1031,0 hPa 0,0 l/m 0 min 0 min 0,0 UV-I 0 W/m 10,3 km/h (2 Bft)
26.02.2013 21:20 3,3 C 2,3 C 95 % 1031,1 hPa 0,0 l/m 0 min 0 min 0,0 UV-I 0 W/m 10,3 km/h (2 Bft)
26.02.2013 21:22 3,3 C 2,3 C 95 % 1031,1 hPa 0,0 l/m 0 min 0 min 0,0 UV-I 0 W/m 15,4 km/h (3 Bft)
26.02.2013 21:24 3,3 C 2,3 C 96 % 1031,1 hPa 0,0 l/m 0 min 0 min 0,0 UV-I 0 W/m 7,7 km/h (2 Bft)
26.02.2013 21:26 3,3 C 2,3 C 96 % 1031,0 hPa 0,0 l/m 0 min 0 min 0,0 UV-I 0 W/m 7,7 km/h (2 Bft)
26.02.2013 21:28 3,3 C 2,3 C 95 % 1031,1 hPa 0,0 l/m 0 min 0 min 0,0 UV-I 0 W/m 7,7 km/h (2 Bft)
26.02.2013 21:30 3,3 C 2,3 C 95 % 1031,1 hPa 0,0 l/m 0 min 0 min 0,0 UV-I 0 W/m 7,7 km/h (2 Bft)
26.02.2013 21:32 3,3 C 2,3 C 95 % 1031,1 hPa 0,0 l/m 0 min 0 min 0,0 UV-I 0 W/m 7,7 km/h (2 Bft)
26.02.2013 21:34 3,3 C 2,3 C 95 % 1031,1 hPa 0,0 l/m 0 min 0 min 0,0 UV-I 0 W/m 18,0 km/h (3 Bft)
26.02.2013 21:36 3,3 C 2,3 C 95 % 1031,2 hPa 0,0 l/m 0 min 0 min 0,0 UV-I 0 W/m 2,6 km/h (1 Bft)
26.02.2013 21:38 3,3 C 2,3 C 95 % 1031,2 hPa 0,0 l/m 0 min 0 min 0,0 UV-I 0 W/m 5,1 km/h (1 Bft)
26.02.2013 21:40 3,3 C 2,3 C 95 % 1031,2 hPa 0,0 l/m 0 min 0 min 0,0 UV-I 0 W/m 10,3 km/h (2 Bft)
26.02.2013 21:42 3,3 C 2,3 C 95 % 1031,2 hPa 0,0 l/m 0 min 0 min 0,0 UV-I 0 W/m 0,0 km/h (0 Bft)
26.02.2013 21:44 3,3 C 2,3 C 95 % 1031,2 hPa 0,0 l/m 0 min 0 min 0,0 UV-I 0 W/m 7,7 km/h (2 Bft)
26.02.2013 21:46 3,3 C 2,3 C 95 % 1031,1 hPa 0,0 l/m 0 min 0 min 0,0 UV-I 0 W/m 15,4 km/h (3 Bft)
26.02.2013 21:48 3,3 C 2,3 C 95 % 1031,1 hPa 0,0 l/m 0 min 0 min 0,0 UV-I 0 W/m 7,7 km/h (2 Bft)
26.02.2013 21:50 3,2 C 2,3 C 95 % 1031,1 hPa 0,0 l/m 0 min 0 min 0,0 UV-I 0 W/m 15,4 km/h (3 Bft)
26.02.2013 21:52 3,2 C 2,3 C 95 % 1031,3 hPa 0,0 l/m 0 min 0 min 0,0 UV-I 0 W/m 7,7 km/h (2 Bft)
26.02.2013 21:54 3,2 C 2,3 C 95 % 1031,3 hPa 0,0 l/m 0 min 0 min 0,0 UV-I 0 W/m 7,7 km/h (2 Bft)
26.02.2013 21:56 3,2 C 2,3 C 95 % 1031,3 hPa 0,0 l/m 0 min 0 min 0,0 UV-I 0 W/m 7,7 km/h (2 Bft)
26.02.2013 21:58 3,2 C 2,3 C 95 % 1031,3 hPa 0,0 l/m 0 min 0 min 0,0 UV-I 0 W/m 10,3 km/h (2 Bft)
26.02.2013 22:00 3,2 C 2,3 C 95 % 1031,2 hPa 0,0 l/m 0 min 0 min 0,0 UV-I 0 W/m 7,7 km/h (2 Bft)
26.02.2013 22:02 3,2 C 2,3 C 95 % 1031,2 hPa 0,0 l/m 0 min 0 min 0,0 UV-I 0 W/m 15,4 km/h (3 Bft)
26.02.2013 22:04 3,2 C 2,3 C 95 % 1031,3 hPa 0,0 l/m 0 min 0 min 0,0 UV-I 0 W/m 10,3 km/h (2 Bft)
26.02.2013 22:06 3,2 C 2,3 C 95 % 1031,3 hPa 0,0 l/m 0 min 0 min 0,0 UV-I 0 W/m 5,1 km/h (1 Bft)
26.02.2013 22:08 3,2 C 2,3 C 95 % 1031,2 hPa 0,0 l/m 0 min 0 min 0,0 UV-I 0 W/m 5,1 km/h (1 Bft)
26.02.2013 22:10 3,2 C 2,3 C 95 % 1031,2 hPa 0,0 l/m 0 min 0 min 0,0 UV-I 0 W/m 5,1 km/h (1 Bft)
26.02.2013 22:12 3,2 C 1,8 C 95 % 1031,2 hPa 0,0 l/m 0 min 0 min 0,0 UV-I 0 W/m 0,0 km/h (0 Bft)
26.02.2013 22:14 3,2 C 1,8 C 95 % 1031,2 hPa 0,0 l/m 0 min 0 min 0,0 UV-I 0 W/m 0,0 km/h (0 Bft)
26.02.2013 22:16 3,2 C 1,8 C 95 % 1031,2 hPa 0,0 l/m 0 min 0 min 0,0 UV-I 0 W/m 0,0 km/h (0 Bft)
26.02.2013 22:18 3,2 C 1,8 C 95 % 1031,2 hPa 0,0 l/m 0 min 0 min 0,0 UV-I 0 W/m 2,6 km/h (1 Bft)
26.02.2013 22:20 3,1 C 1,8 C 95 % 1031,2 hPa 0,0 l/m 0 min 0 min 0,0 UV-I 0 W/m 0,0 km/h (0 Bft)
26.02.2013 22:22 3,1 C 1,8 C 95 % 1031,2 hPa 0,0 l/m 0 min 0 min 0,0 UV-I 0 W/m 2,6 km/h (1 Bft)
26.02.2013 22:24 3,1 C 1,8 C 95 % 1031,3 hPa 0,0 l/m 0 min 0 min 0,0 UV-I 0 W/m 2,6 km/h (1 Bft)
26.02.2013 22:26 3,1 C 1,8 C 95 % 1031,3 hPa 0,0 l/m 0 min 0 min 0,0 UV-I 0 W/m 0,0 km/h (0 Bft)
26.02.2013 22:28 3,1 C 1,8 C 95 % 1031,3 hPa 0,0 l/m 0 min 0 min 0,0 UV-I 0 W/m 0,0 km/h (0 Bft)
26.02.2013 22:30 3,1 C 1,8 C 95 % 1031,4 hPa 0,0 l/m 0 min 0 min 0,0 UV-I 0 W/m 0,0 km/h (0 Bft)
26.02.2013 22:32 3,1 C 1,8 C 95 % 1031,4 hPa 0,0 l/m 0 min 0 min 0,0 UV-I 0 W/m 0,0 km/h (0 Bft)
26.02.2013 22:34 3,0 C 1,8 C 95 % 1031,4 hPa 0,0 l/m 0 min 0 min 0,0 UV-I 0 W/m 2,6 km/h (1 Bft)
26.02.2013 22:36 3,0 C 1,8 C 95 % 1031,4 hPa 0,0 l/m 0 min 0 min 0,0 UV-I 0 W/m 7,7 km/h (2 Bft)
26.02.2013 22:38 3,0 C 1,8 C 95 % 1031,4 hPa 0,0 l/m 0 min 0 min 0,0 UV-I 0 W/m 5,1 km/h (1 Bft)
26.02.2013 22:40 2,9 C 1,8 C 95 % 1031,4 hPa 0,0 l/m 0 min 0 min 0,0 UV-I 0 W/m 2,6 km/h (1 Bft)
26.02.2013 22:42 2,9 C 1,8 C 95 % 1031,4 hPa 0,0 l/m 0 min 0 min 0,0 UV-I 0 W/m 7,7 km/h (2 Bft)
26.02.2013 22:44 2,9 C 1,8 C 95 % 1031,5 hPa 0,0 l/m 0 min 0 min 0,0 UV-I 0 W/m 5,1 km/h (1 Bft)
26.02.2013 22:46 2,9 C 1,8 C 95 % 1031,5 hPa 0,0 l/m 0 min 0 min 0,0 UV-I 0 W/m 7,7 km/h (2 Bft)
26.02.2013 22:48 2,9 C 1,8 C 95 % 1031,5 hPa 0,0 l/m 0 min 0 min 0,0 UV-I 0 W/m 0,0 km/h (0 Bft)
26.02.2013 22:50 2,9 C 1,8 C 95 % 1031,5 hPa 0,0 l/m 0 min 0 min 0,0 UV-I 0 W/m 0,0 km/h (0 Bft)
26.02.2013 22:52 2,9 C 1,8 C 95 % 1031,5 hPa 0,0 l/m 0 min 0 min 0,0 UV-I 0 W/m 5,1 km/h (1 Bft)
26.02.2013 22:54 2,9 C 1,8 C 95 % 1031,4 hPa 0,0 l/m 0 min 0 min 0,0 UV-I 0 W/m 0,0 km/h (0 Bft)
26.02.2013 22:56 2,8 C 1,8 C 95 % 1031,5 hPa 0,0 l/m 0 min 0 min 0,0 UV-I 0 W/m 2,6 km/h (1 Bft)
26.02.2013 22:58 2,8 C 1,8 C 95 % 1031,5 hPa 0,0 l/m 0 min 0 min 0,0 UV-I 0 W/m 7,7 km/h (2 Bft)
26.02.2013 23:00 2,8 C 1,8 C 95 % 1031,5 hPa 0,0 l/m 0 min 0 min 0,0 UV-I 0 W/m 7,7 km/h (2 Bft)
26.02.2013 23:02 2,8 C 1,8 C 95 % 1031,6 hPa 0,0 l/m 0 min 0 min 0,0 UV-I 0 W/m 7,7 km/h (2 Bft)
26.02.2013 23:04 2,8 C 1,8 C 95 % 1031,5 hPa 0,0 l/m 0 min 0 min 0,0 UV-I 0 W/m 5,1 km/h (1 Bft)
26.02.2013 23:06 2,7 C 1,8 C 95 % 1031,5 hPa 0,0 l/m 0 min 0 min 0,0 UV-I 0 W/m 5,1 km/h (1 Bft)
26.02.2013 23:08 2,7 C 1,8 C 95 % 1031,5 hPa 0,0 l/m 0 min 0 min 0,0 UV-I 0 W/m 7,7 km/h (2 Bft)
26.02.2013 23:10 2,7 C 1,8 C 95 % 1031,5 hPa 0,0 l/m 0 min 0 min 0,0 UV-I 0 W/m 7,7 km/h (2 Bft)
26.02.2013 23:12 2,7 C 1,8 C 95 % 1031,5 hPa 0,0 l/m 0 min 0 min 0,0 UV-I 0 W/m 2,6 km/h (1 Bft)
26.02.2013 23:14 2,7 C 1,8 C 95 % 1031,5 hPa 0,0 l/m 0 min 0 min 0,0 UV-I 0 W/m 0,0 km/h (0 Bft)
26.02.2013 23:16 2,7 C 1,8 C 95 % 1031,5 hPa 0,0 l/m 0 min 0 min 0,0 UV-I 0 W/m 5,1 km/h (1 Bft)
26.02.2013 23:18 2,7 C 1,8 C 95 % 1031,5 hPa 0,0 l/m 0 min 0 min 0,0 UV-I 0 W/m 5,1 km/h (1 Bft)
26.02.2013 23:20 2,6 C 1,8 C 95 % 1031,5 hPa 0,0 l/m 0 min 0 min 0,0 UV-I 0 W/m 7,7 km/h (2 Bft)
26.02.2013 23:22 2,6 C 1,2 C 95 % 1031,5 hPa 0,0 l/m 0 min 0 min 0,0 UV-I 0 W/m 5,1 km/h (1 Bft)
26.02.2013 23:24 2,6 C 1,2 C 95 % 1031,5 hPa 0,0 l/m 0 min 0 min 0,0 UV-I 0 W/m 5,1 km/h (1 Bft)
26.02.2013 23:26 2,6 C 1,2 C 95 % 1031,5 hPa 0,0 l/m 0 min 0 min 0,0 UV-I 0 W/m 5,1 km/h (1 Bft)
26.02.2013 23:28 2,6 C 1,2 C 95 % 1031,5 hPa 0,0 l/m 0 min 0 min 0,0 UV-I 0 W/m 5,1 km/h (1 Bft)
26.02.2013 23:30 2,6 C 1,2 C 95 % 1031,5 hPa 0,0 l/m 0 min 0 min 0,0 UV-I 0 W/m 0,0 km/h (0 Bft)
26.02.2013 23:32 2,6 C 1,2 C 95 % 1031,5 hPa 0,0 l/m 0 min 0 min 0,0 UV-I 0 W/m 5,1 km/h (1 Bft)
26.02.2013 23:34 2,5 C 1,2 C 95 % 1031,5 hPa 0,0 l/m 0 min 0 min 0,0 UV-I 0 W/m 5,1 km/h (1 Bft)
26.02.2013 23:36 2,5 C 1,2 C 95 % 1031,5 hPa 0,0 l/m 0 min 0 min 0,0 UV-I 0 W/m 0,0 km/h (0 Bft)
26.02.2013 23:38 2,5 C 1,2 C 95 % 1031,5 hPa 0,0 l/m 0 min 0 min 0,0 UV-I 0 W/m 5,1 km/h (1 Bft)
26.02.2013 23:40 2,5 C 1,2 C 96 % 1031,5 hPa 0,0 l/m 0 min 0 min 0,0 UV-I 0 W/m 7,7 km/h (2 Bft)
26.02.2013 23:42 2,4 C 1,2 C 96 % 1031,5 hPa 0,0 l/m 0 min 0 min 0,0 UV-I 0 W/m 7,7 km/h (2 Bft)
26.02.2013 23:44 2,4 C 1,2 C 96 % 1031,5 hPa 0,0 l/m 0 min 0 min 0,0 UV-I 0 W/m 5,1 km/h (1 Bft)
26.02.2013 23:46 2,4 C 1,2 C 96 % 1031,4 hPa 0,0 l/m 0 min 0 min 0,0 UV-I 0 W/m 5,1 km/h (1 Bft)
26.02.2013 23:48 2,4 C 1,2 C 96 % 1031,4 hPa 0,0 l/m 0 min 0 min 0,0 UV-I 0 W/m 5,1 km/h (1 Bft)
26.02.2013 23:50 2,4 C 1,2 C 96 % 1031,4 hPa 0,0 l/m 0 min 0 min 0,0 UV-I 0 W/m 2,6 km/h (1 Bft)
26.02.2013 23:52 2,4 C 1,2 C 96 % 1031,3 hPa 0,0 l/m 0 min 0 min 0,0 UV-I 0 W/m 5,1 km/h (1 Bft)
26.02.2013 23:54 2,3 C 1,2 C 96 % 1031,4 hPa 0,0 l/m 0 min 0 min 0,0 UV-I 0 W/m 0,0 km/h (0 Bft)
26.02.2013 23:56 2,3 C 1,2 C 96 % 1031,5 hPa 0,0 l/m 0 min 0 min 0,0 UV-I 0 W/m 7,7 km/h (2 Bft)
26.02.2013 23:58 2,3 C 1,2 C 96 % 1031,5 hPa 0,0 l/m 0 min 0 min 0,0 UV-I 0 W/m 2,6 km/h (1 Bft)
_ Min-Zeit 08:08 06:36 12:24 00:00 - - - - - 00:02
Minimum _ -0,2 C -2,1 C 86 % 1025,2 hPa - - - - - 0,0 km/h (0 Bft)
_ Max-Zeit 12:18 12:10 00:00 23:02 14:56 09:26 14:54 12:06 10:48 16:00
Maximum _ 5,7 C 5,7 C 100 % 1031,6 hPa 0,2 l/m 2 min 2 min 0,7 UV-I 385 W/m 23,2 km/h
NW (4 Bft)
Durchschnitt _ 2,8 C 1,7 C 96 % 1029,4 hPa #0,2 l/m #1:14 h #6 min. 0,5 UV-I 122 W/m 5,5 km/h (1 Bft)
© 2013 W. Hausmann